Wetterdaten: Sonntag, 06.09.2015
Datum Zeit Temp. Aussen Temp. o. S. +5cm Feuchte Auss BlattFeu 1 Luftdruck Regen Sonnenschein Regendauer Solar Windben Empfang
06.09.2015 00:00 9,8 C 9,4 C 7,8 C 91 % 1 lf 1018,9 hPa 0,0 l/m 0 min 0 min 0 W/m 14,6 km/h (3 Bft) 100,00 %
06.09.2015 00:02 9,8 C 9,4 C 8,3 C 91 % 1 lf 1018,9 hPa 0,0 l/m 0 min 0 min 0 W/m 10,5 km/h (2 Bft) 100,00 %
06.09.2015 00:05 9,8 C 9,4 C 7,8 C 91 % 1 lf 1018,9 hPa 0,0 l/m 0 min 0 min 0 W/m 10,5 km/h (2 Bft) 100,00 %
06.09.2015 00:06 9,8 C 9,4 C 7,8 C 91 % 1 lf 1018,9 hPa 0,0 l/m 0 min 0 min 0 W/m 16,7 km/h (3 Bft) 100,00 %
06.09.2015 00:08 9,8 C 9,4 C 8,3 C 91 % 1 lf 1018,9 hPa 0,0 l/m 0 min 0 min 0 W/m 12,6 km/h (3 Bft) 95,74 %
06.09.2015 00:10 9,8 C 9,4 C 8,3 C 91 % 1 lf 1018,9 hPa 0,0 l/m 0 min 0 min 0 W/m 10,5 km/h (2 Bft) 100,00 %
06.09.2015 00:12 9,8 C 9,4 C 8,3 C 91 % 1 lf 1018,9 hPa 0,0 l/m 0 min 0 min 0 W/m 14,6 km/h (3 Bft) 97,87 %
06.09.2015 00:14 9,7 C 9,4 C 8,3 C 92 % 1 lf 1018,9 hPa 0,0 l/m 0 min 0 min 0 W/m 16,7 km/h (3 Bft) 97,87 %
06.09.2015 00:16 9,7 C 9,4 C 8,3 C 92 % 1 lf 1018,9 hPa 0,0 l/m 0 min 0 min 0 W/m 18,8 km/h (3 Bft) 97,87 %
06.09.2015 00:18 9,8 C 10,0 C 8,3 C 91 % 1 lf 1018,9 hPa 0,0 l/m 0 min 0 min 0 W/m 18,8 km/h (3 Bft) 95,74 %
06.09.2015 00:20 9,8 C 10,0 C 8,3 C 91 % 1 lf 1018,9 hPa 0,0 l/m 0 min 0 min 0 W/m 18,8 km/h (3 Bft) 97,87 %
06.09.2015 00:22 9,8 C 10,0 C 8,3 C 92 % 1 lf 1018,9 hPa 0,0 l/m 0 min 0 min 0 W/m 25,1 km/h (4 Bft) 95,74 %
06.09.2015 00:24 9,8 C 10,0 C 8,3 C 92 % 1 lf 1018,9 hPa 0,0 l/m 0 min 0 min 0 W/m 20,9 km/h (4 Bft) 95,65 %
06.09.2015 00:26 9,8 C 10,0 C 8,3 C 92 % 1 lf 1019,0 hPa 0,0 l/m 0 min 0 min 0 W/m 14,6 km/h (3 Bft) 97,87 %
06.09.2015 00:28 9,8 C 10,0 C 8,3 C 92 % 1 lf 1019,0 hPa 0,0 l/m 0 min 0 min 0 W/m 14,6 km/h (3 Bft) 97,87 %
06.09.2015 00:30 9,8 C 10,0 C 8,3 C 92 % 1 lf 1019,1 hPa 0,0 l/m 0 min 0 min 0 W/m 16,7 km/h (3 Bft) 93,62 %
06.09.2015 00:32 9,8 C 10,0 C 8,3 C 92 % 1 lf 1019,1 hPa 0,0 l/m 0 min 0 min 0 W/m 14,6 km/h (3 Bft) 93,62 %
06.09.2015 00:34 9,8 C 10,0 C 8,3 C 92 % 1 lf 1019,2 hPa 0,0 l/m 0 min 0 min 0 W/m 12,6 km/h (3 Bft) 95,65 %
06.09.2015 00:36 9,8 C 9,4 C 8,3 C 92 % 1 lf 1019,2 hPa 0,0 l/m 0 min 0 min 0 W/m 10,5 km/h (2 Bft) 95,74 %
06.09.2015 00:38 9,8 C 9,4 C 8,3 C 92 % 1 lf 1019,2 hPa 0,0 l/m 0 min 0 min 0 W/m 14,6 km/h (3 Bft) 93,62 %
06.09.2015 00:40 9,8 C 9,4 C 8,3 C 92 % 1 lf 1019,2 hPa 0,0 l/m 0 min 0 min 0 W/m 16,7 km/h (3 Bft) 93,62 %
06.09.2015 00:42 9,8 C 9,4 C 8,3 C 92 % 1 lf 1019,3 hPa 0,0 l/m 0 min 0 min 0 W/m 12,6 km/h (3 Bft) 95,74 %
06.09.2015 00:44 9,8 C 9,4 C 8,3 C 92 % 1 lf 1019,3 hPa 0,0 l/m 0 min 0 min 0 W/m 12,6 km/h (3 Bft) 95,74 %
06.09.2015 00:46 9,8 C 9,4 C 8,3 C 92 % 1 lf 1019,3 hPa 0,0 l/m 0 min 0 min 0 W/m 16,7 km/h (3 Bft) 97,83 %
06.09.2015 00:48 9,8 C 9,4 C 8,3 C 92 % 1 lf 1019,3 hPa 0,0 l/m 0 min 0 min 0 W/m 12,6 km/h (3 Bft) 95,74 %
06.09.2015 00:50 9,8 C 10,0 C 8,3 C 92 % 1 lf 1019,3 hPa 0,0 l/m 0 min 0 min 0 W/m 12,6 km/h (3 Bft) 95,74 %
06.09.2015 00:52 9,8 C 10,0 C 8,3 C 92 % 1 lf 1019,3 hPa 0,0 l/m 0 min 0 min 0 W/m 10,5 km/h (2 Bft) 93,62 %
06.09.2015 00:54 9,8 C 10,0 C 8,9 C 92 % 1 lf 1019,3 hPa 0,0 l/m 0 min 0 min 0 W/m 20,9 km/h (4 Bft) 97,87 %
06.09.2015 00:56 9,8 C 10,0 C 8,9 C 92 % 1 lf 1019,3 hPa 0,0 l/m 0 min 0 min 0 W/m 16,7 km/h (3 Bft) 95,74 %
06.09.2015 00:58 9,8 C 10,0 C 8,9 C 92 % 1 lf 1019,3 hPa 0,0 l/m 0 min 0 min 0 W/m 12,6 km/h (3 Bft) 93,48 %
06.09.2015 01:00 9,9 C 10,0 C 8,9 C 92 % 1 lf 1019,3 hPa 0,0 l/m 0 min 0 min 0 W/m 14,6 km/h (3 Bft) 93,62 %
06.09.2015 01:02 9,9 C 10,0 C 8,9 C 92 % 1 lf 1019,3 hPa 0,0 l/m 0 min 0 min 0 W/m 14,6 km/h (3 Bft) 95,74 %
06.09.2015 01:04 9,9 C 10,0 C 8,9 C 92 % 1 lf 1019,3 hPa 0,0 l/m 0 min 0 min 0 W/m 10,5 km/h (2 Bft) 95,74 %
06.09.2015 01:06 9,9 C 10,0 C 8,9 C 92 % 1 lf 1019,3 hPa 0,0 l/m 0 min 0 min 0 W/m 10,5 km/h (2 Bft) 95,74 %
06.09.2015 01:08 9,9 C 10,0 C 8,9 C 92 % 0 lf 1019,3 hPa 0,0 l/m 0 min 0 min 0 W/m 18,8 km/h (3 Bft) 91,49 %
06.09.2015 01:10 9,9 C 10,0 C 8,9 C 92 % 1 lf 1019,3 hPa 0,0 l/m 0 min 0 min 0 W/m 12,6 km/h (3 Bft) 95,65 %
06.09.2015 01:12 9,9 C 10,0 C 8,9 C 92 % 1 lf 1019,3 hPa 0,0 l/m 0 min 0 min 0 W/m 16,7 km/h (3 Bft) 93,62 %
06.09.2015 01:14 10,0 C 10,0 C 8,9 C 92 % 0 lf 1019,3 hPa 0,0 l/m 0 min 0 min 0 W/m 18,8 km/h (3 Bft) 95,74 %
06.09.2015 01:16 10,0 C 10,0 C 8,9 C 92 % 0 lf 1019,4 hPa 0,0 l/m 0 min 0 min 0 W/m 18,8 km/h (3 Bft) 93,62 %
06.09.2015 01:18 10,0 C 10,6 C 8,9 C 92 % 0 lf 1019,3 hPa 0,0 l/m 0 min 0 min 0 W/m 16,7 km/h (3 Bft) 97,87 %
06.09.2015 01:20 10,0 C 10,0 C 8,9 C 92 % 0 lf 1019,3 hPa 0,0 l/m 0 min 0 min 0 W/m 16,7 km/h (3 Bft) 95,74 %
06.09.2015 01:22 10,1 C 10,6 C 8,9 C 92 % 2 lf 1019,3 hPa 0,0 l/m 0 min 0 min 0 W/m 16,7 km/h (3 Bft) 95,65 %
06.09.2015 01:24 10,1 C 10,6 C 8,9 C 92 % 2 lf 1019,3 hPa 0,0 l/m 0 min 2 min 0 W/m 18,8 km/h (3 Bft) 97,87 %
06.09.2015 01:26 10,1 C 10,6 C 8,9 C 92 % 10 lf 1019,2 hPa 0,0 l/m 0 min 2 min 0 W/m 14,6 km/h (3 Bft) 95,74 %
06.09.2015 01:28 10,1 C 10,6 C 8,9 C 92 % 10 lf 1019,3 hPa 0,0 l/m 0 min 2 min 0 W/m 18,8 km/h (3 Bft) 95,74 %
06.09.2015 01:30 10,1 C 10,6 C 8,9 C 92 % 11 lf 1019,3 hPa 0,0 l/m 0 min 0 min 0 W/m 8,4 km/h (2 Bft) 93,62 %
06.09.2015 01:32 10,2 C 10,6 C 8,9 C 92 % 11 lf 1019,3 hPa 0,0 l/m 0 min 2 min 0 W/m 12,6 km/h (3 Bft) 97,83 %
06.09.2015 01:34 10,2 C 10,6 C 8,9 C 92 % 10 lf 1019,3 hPa 0,0 l/m 0 min 2 min 0 W/m 16,7 km/h (3 Bft) 97,87 %
06.09.2015 01:36 10,2 C 10,6 C 8,9 C 92 % 9 lf 1019,3 hPa 0,0 l/m 0 min 0 min 0 W/m 10,5 km/h (2 Bft) 97,87 %
06.09.2015 01:38 10,2 C 10,6 C 8,9 C 92 % 7 lf 1019,4 hPa 0,0 l/m 0 min 0 min 0 W/m 18,8 km/h (3 Bft) 95,74 %
06.09.2015 01:40 10,2 C 10,6 C 8,9 C 92 % 7 lf 1019,5 hPa 0,0 l/m 0 min 2 min 0 W/m 16,7 km/h (3 Bft) 100,00 %
06.09.2015 01:42 10,2 C 10,6 C 8,9 C 92 % 15 lf 1019,5 hPa 0,0 l/m 0 min 2 min 0 W/m 16,7 km/h (3 Bft) 97,87 %
06.09.2015 01:44 10,2 C 10,0 C 8,9 C 92 % 15 lf 1019,4 hPa 0,0 l/m 0 min 2 min 0 W/m 10,5 km/h (2 Bft) 97,83 %
06.09.2015 01:46 10,2 C 10,0 C 8,9 C 92 % 15 lf 1019,4 hPa 0,0 l/m 0 min 2 min 0 W/m 8,4 km/h (2 Bft) 100,00 %
06.09.2015 01:48 10,2 C 10,0 C 8,9 C 92 % 15 lf 1019,4 hPa 0,0 l/m 0 min 0 min 0 W/m 14,6 km/h (3 Bft) 100,00 %
06.09.2015 01:50 10,2 C 10,0 C 8,9 C 92 % 15 lf 1019,4 hPa 0,0 l/m 0 min 0 min 0 W/m 12,6 km/h (3 Bft) 100,00 %
06.09.2015 01:52 10,2 C 10,0 C 8,9 C 92 % 15 lf 1019,4 hPa 0,0 l/m 0 min 0 min 0 W/m 14,6 km/h (3 Bft) 100,00 %
06.09.2015 01:54 10,2 C 10,0 C 8,9 C 92 % 15 lf 1019,4 hPa 0,0 l/m 0 min 0 min 0 W/m 12,6 km/h (3 Bft) 97,87 %
06.09.2015 01:56 10,2 C 10,0 C 8,9 C 92 % 14 lf 1019,4 hPa 0,0 l/m 0 min 0 min 0 W/m 12,6 km/h (3 Bft) 97,83 %
06.09.2015 01:58 10,2 C 10,0 C 8,9 C 92 % 14 lf 1019,4 hPa 0,0 l/m 0 min 0 min 0 W/m 10,5 km/h (2 Bft) 97,87 %
06.09.2015 02:00 10,3 C 10,6 C 8,9 C 92 % 13 lf 1019,3 hPa 0,0 l/m 0 min 0 min 0 W/m 12,6 km/h (3 Bft) 95,74 %
06.09.2015 02:02 10,3 C 10,6 C 8,9 C 92 % 13 lf 1019,3 hPa 0,0 l/m 0 min 0 min 0 W/m 14,6 km/h (3 Bft) 97,87 %
06.09.2015 02:04 10,3 C 10,6 C 8,9 C 92 % 12 lf 1019,3 hPa 0,0 l/m 0 min 0 min 0 W/m 10,5 km/h (2 Bft) 95,74 %
06.09.2015 02:06 10,3 C 10,6 C 8,9 C 92 % 11 lf 1019,4 hPa 0,0 l/m 0 min 0 min 0 W/m 10,5 km/h (2 Bft) 97,87 %
06.09.2015 02:08 10,3 C 10,6 C 8,9 C 92 % 10 lf 1019,3 hPa 0,0 l/m 0 min 0 min 0 W/m 8,4 km/h (2 Bft) 93,48 %
06.09.2015 02:10 10,3 C 10,6 C 8,9 C 92 % 9 lf 1019,3 hPa 0,0 l/m 0 min 0 min 0 W/m 12,6 km/h (3 Bft) 97,87 %
06.09.2015 02:12 10,2 C 10,0 C 8,9 C 92 % 7 lf 1019,4 hPa 0,0 l/m 0 min 0 min 0 W/m 12,6 km/h (3 Bft) 97,87 %
06.09.2015 02:14 10,2 C 10,0 C 8,9 C 92 % 4 lf 1019,4 hPa 0,0 l/m 0 min 0 min 0 W/m 14,6 km/h (3 Bft) 95,74 %
06.09.2015 02:16 10,2 C 10,0 C 8,9 C 92 % 4 lf 1019,4 hPa 0,0 l/m 0 min 0 min 0 W/m 14,6 km/h (3 Bft) 95,74 %
06.09.2015 02:18 10,2 C 10,0 C 8,9 C 92 % 3 lf 1019,4 hPa 0,0 l/m 0 min 0 min 0 W/m 10,5 km/h (2 Bft) 93,62 %
06.09.2015 02:20 10,2 C 10,0 C 8,9 C 92 % 2 lf 1019,4 hPa 0,0 l/m 0 min 0 min 0 W/m 14,6 km/h (3 Bft) 95,65 %
06.09.2015 02:22 10,2 C 10,0 C 8,9 C 92 % 2 lf 1019,4 hPa 0,0 l/m 0 min 0 min 0 W/m 10,5 km/h (2 Bft) 97,87 %
06.09.2015 02:24 10,2 C 10,0 C 8,9 C 92 % 1 lf 1019,4 hPa 0,0 l/m 0 min 0 min 0 W/m 12,6 km/h (3 Bft) 100,00 %
06.09.2015 02:26 10,2 C 10,0 C 8,9 C 92 % 1 lf 1019,4 hPa 0,0 l/m 0 min 0 min 0 W/m 10,5 km/h (2 Bft) 100,00 %
06.09.2015 02:28 10,2 C 10,0 C 8,9 C 92 % 1 lf 1019,5 hPa 0,0 l/m 0 min 0 min 0 W/m 8,4 km/h (2 Bft) 97,87 %
06.09.2015 02:30 10,2 C 10,0 C 8,9 C 92 % 1 lf 1019,4 hPa 0,0 l/m 0 min 0 min 0 W/m 10,5 km/h (2 Bft) 97,87 %
06.09.2015 02:32 10,2 C 10,0 C 8,9 C 92 % 1 lf 1019,4 hPa 0,0 l/m 0 min 0 min 0 W/m 12,6 km/h (3 Bft) 95,65 %
06.09.2015 02:34 10,2 C 10,0 C 8,9 C 92 % 1 lf 1019,5 hPa 0,0 l/m 0 min 0 min 0 W/m 12,6 km/h (3 Bft) 95,74 %
06.09.2015 02:36 10,2 C 10,0 C 8,9 C 92 % 1 lf 1019,5 hPa 0,0 l/m 0 min 0 min 0 W/m 8,4 km/h (2 Bft) 97,87 %
06.09.2015 02:38 10,2 C 10,0 C 8,9 C 92 % 1 lf 1019,5 hPa 0,0 l/m 0 min 0 min 0 W/m 10,5 km/h (2 Bft) 95,74 %
06.09.2015 02:40 10,2 C 10,0 C 8,9 C 92 % 1 lf 1019,5 hPa 0,0 l/m 0 min 0 min 0 W/m 12,6 km/h (3 Bft) 95,74 %
06.09.2015 02:42 10,2 C 10,0 C 8,9 C 92 % 1 lf 1019,5 hPa 0,0 l/m 0 min 0 min 0 W/m 12,6 km/h (3 Bft) 97,83 %
06.09.2015 02:44 10,2 C 10,0 C 8,9 C 92 % 1 lf 1019,4 hPa 0,0 l/m 0 min 0 min 0 W/m 8,4 km/h (2 Bft) 97,87 %
06.09.2015 02:46 10,2 C 10,0 C 8,9 C 92 % 1 lf 1019,4 hPa 0,0 l/m 0 min 0 min 0 W/m 10,5 km/h (2 Bft) 97,87 %
06.09.2015 02:48 10,2 C 10,0 C 8,9 C 92 % 1 lf 1019,5 hPa 0,0 l/m 0 min 0 min 0 W/m 12,6 km/h (3 Bft) 97,87 %
06.09.2015 02:50 10,2 C 10,0 C 8,9 C 92 % 1 lf 1019,4 hPa 0,0 l/m 0 min 0 min 0 W/m 8,4 km/h (2 Bft) 95,74 %
06.09.2015 02:52 10,2 C 10,0 C 8,9 C 92 % 1 lf 1019,4 hPa 0,0 l/m 0 min 0 min 0 W/m 8,4 km/h (2 Bft) 95,74 %
06.09.2015 02:54 10,1 C 10,0 C 8,3 C 92 % 1 lf 1019,4 hPa 0,0 l/m 0 min 0 min 0 W/m 8,4 km/h (2 Bft) 97,83 %
06.09.2015 02:56 10,1 C 10,0 C 8,3 C 92 % 1 lf 1019,5 hPa 0,0 l/m 0 min 0 min 0 W/m 8,4 km/h (2 Bft) 95,74 %
06.09.2015 02:58 10,1 C 10,0 C 8,3 C 92 % 1 lf 1019,5 hPa 0,0 l/m 0 min 0 min 0 W/m 10,5 km/h (2 Bft) 95,74 %
06.09.2015 03:00 10,1 C 10,0 C 8,3 C 92 % 1 lf 1019,5 hPa 0,0 l/m 0 min 0 min 0 W/m 10,5 km/h (2 Bft) 95,74 %
06.09.2015 03:02 10,1 C 10,0 C 8,3 C 92 % 1 lf 1019,5 hPa 0,0 l/m 0 min 0 min 0 W/m 10,5 km/h (2 Bft) 95,74 %
06.09.2015 03:04 10,1 C 10,0 C 8,3 C 92 % 1 lf 1019,5 hPa 0,0 l/m 0 min 0 min 0 W/m 16,7 km/h (3 Bft) 97,87 %
06.09.2015 03:06 10,1 C 10,0 C 8,3 C 92 % 1 lf 1019,6 hPa 0,0 l/m 0 min 0 min 0 W/m 10,5 km/h (2 Bft) 97,83 %
06.09.2015 03:08 10,0 C 10,0 C 8,3 C 92 % 1 lf 1019,5 hPa 0,0 l/m 0 min 0 min 0 W/m 12,6 km/h (3 Bft) 95,74 %
06.09.2015 03:10 10,0 C 10,0 C 8,3 C 92 % 1 lf 1019,5 hPa 0,0 l/m 0 min 0 min 0 W/m 14,6 km/h (3 Bft) 97,87 %
06.09.2015 03:12 10,0 C 10,0 C 8,3 C 92 % 1 lf 1019,5 hPa 0,0 l/m 0 min 0 min 0 W/m 18,8 km/h (3 Bft) 97,87 %
06.09.2015 03:14 10,0 C 10,0 C 8,3 C 92 % 1 lf 1019,6 hPa 0,0 l/m 0 min 0 min 0 W/m 10,5 km/h (2 Bft) 93,62 %
06.09.2015 03:16 10,0 C 9,4 C 8,3 C 92 % 1 lf 1019,6 hPa 0,0 l/m 0 min 0 min 0 W/m 16,7 km/h (3 Bft) 97,87 %
06.09.2015 03:18 9,9 C 9,4 C 8,3 C 92 % 1 lf 1019,5 hPa 0,0 l/m 0 min 0 min 0 W/m 16,7 km/h (3 Bft) 95,65 %
06.09.2015 03:20 9,9 C 9,4 C 8,3 C 92 % 1 lf 1019,6 hPa 0,0 l/m 0 min 0 min 0 W/m 16,7 km/h (3 Bft) 95,74 %
06.09.2015 03:22 9,9 C 9,4 C 8,3 C 92 % 1 lf 1019,5 hPa 0,0 l/m 0 min 0 min 0 W/m 14,6 km/h (3 Bft) 95,74 %
06.09.2015 03:24 9,9 C 9,4 C 8,3 C 92 % 1 lf 1019,6 hPa 0,0 l/m 0 min 0 min 0 W/m 16,7 km/h (3 Bft) 95,74 %
06.09.2015 03:26 9,8 C 9,4 C 7,8 C 92 % 1 lf 1019,6 hPa 0,0 l/m 0 min 0 min 0 W/m 12,6 km/h (3 Bft) 97,87 %
06.09.2015 03:28 9,8 C 9,4 C 7,8 C 92 % 1 lf 1019,6 hPa 0,0 l/m 0 min 0 min 0 W/m 14,6 km/h (3 Bft) 93,62 %
06.09.2015 03:30 9,8 C 9,4 C 7,8 C 92 % 1 lf 1019,6 hPa 0,0 l/m 0 min 0 min 0 W/m 14,6 km/h (3 Bft) 100,00 %
06.09.2015 03:32 9,8 C 9,4 C 7,8 C 92 % 1 lf 1019,6 hPa 0,0 l/m 0 min 0 min 0 W/m 12,6 km/h (3 Bft) 97,87 %
06.09.2015 03:34 9,7 C 9,4 C 7,8 C 92 % 1 lf 1019,6 hPa 0,0 l/m 0 min 0 min 0 W/m 12,6 km/h (3 Bft) 95,74 %
06.09.2015 03:36 9,7 C 9,4 C 7,8 C 92 % 1 lf 1019,6 hPa 0,0 l/m 0 min 0 min 0 W/m 14,6 km/h (3 Bft) 93,62 %
06.09.2015 03:38 9,7 C 8,9 C 7,8 C 92 % 1 lf 1019,6 hPa 0,0 l/m 0 min 0 min 0 W/m 12,6 km/h (3 Bft) 93,62 %
06.09.2015 03:40 9,7 C 8,9 C 7,8 C 92 % 1 lf 1019,6 hPa 0,0 l/m 0 min 0 min 0 W/m 20,9 km/h (4 Bft) 87,23 %
06.09.2015 03:42 9,7 C 9,4 C 7,8 C 92 % 1 lf 1019,6 hPa 0,0 l/m 0 min 0 min 0 W/m 14,6 km/h (3 Bft) 93,48 %
06.09.2015 03:44 9,6 C 9,4 C 7,8 C 92 % 1 lf 1019,6 hPa 0,0 l/m 0 min 0 min 0 W/m 12,6 km/h (3 Bft) 91,49 %
06.09.2015 03:46 9,6 C 9,4 C 7,8 C 92 % 1 lf 1019,6 hPa 0,0 l/m 0 min 0 min 0 W/m 8,4 km/h (2 Bft) 93,62 %
06.09.2015 03:48 9,6 C 9,4 C 7,8 C 92 % 1 lf 1019,6 hPa 0,0 l/m 0 min 0 min 0 W/m 14,6 km/h (3 Bft) 95,74 %
06.09.2015 03:50 9,6 C 9,4 C 7,8 C 92 % 1 lf 1019,5 hPa 0,0 l/m 0 min 0 min 0 W/m 12,6 km/h (3 Bft) 95,74 %
06.09.2015 03:52 9,6 C 9,4 C 7,8 C 92 % 1 lf 1019,6 hPa 0,0 l/m 0 min 0 min 0 W/m 14,6 km/h (3 Bft) 93,62 %
06.09.2015 03:54 9,6 C 9,4 C 8,3 C 92 % 1 lf 1019,6 hPa 0,0 l/m 0 min 0 min 0 W/m 14,6 km/h (3 Bft) 91,30 %
06.09.2015 03:56 9,6 C 9,4 C 8,3 C 92 % 1 lf 1019,6 hPa 0,0 l/m 0 min 0 min 0 W/m 12,6 km/h (3 Bft) 91,49 %
06.09.2015 03:58 9,6 C 9,4 C 8,3 C 92 % 1 lf 1019,7 hPa 0,0 l/m 0 min 0 min 0 W/m 16,7 km/h (3 Bft) 93,62 %
06.09.2015 04:00 9,6 C 9,4 C 8,3 C 92 % 1 lf 1019,7 hPa 0,0 l/m 0 min 0 min 0 W/m 10,5 km/h (2 Bft) 89,36 %
06.09.2015 04:02 9,6 C 9,4 C 8,3 C 93 % 1 lf 1019,6 hPa 0,0 l/m 0 min 0 min 0 W/m 8,4 km/h (2 Bft) 95,24 %
06.09.2015 04:04 9,6 C 9,4 C 8,3 C 93 % 1 lf 1019,6 hPa 0,0 l/m 0 min 0 min 0 W/m 12,6 km/h (3 Bft) 93,48 %
06.09.2015 04:06 9,6 C 9,4 C 8,3 C 93 % 1 lf 1019,7 hPa 0,0 l/m 0 min 0 min 0 W/m 12,6 km/h (3 Bft) 91,49 %
06.09.2015 04:08 9,6 C 9,4 C 8,3 C 93 % 1 lf 1019,7 hPa 0,0 l/m 0 min 0 min 0 W/m 12,6 km/h (3 Bft) 91,49 %
06.09.2015 04:10 9,6 C 9,4 C 8,3 C 92 % 1 lf 1019,6 hPa 0,0 l/m 0 min 0 min 0 W/m 10,5 km/h (2 Bft) 93,62 %
06.09.2015 04:12 9,6 C 9,4 C 8,3 C 93 % 1 lf 1019,7 hPa 0,0 l/m 0 min 0 min 0 W/m 18,8 km/h (3 Bft) 93,62 %
06.09.2015 04:14 9,6 C 9,4 C 8,3 C 93 % 1 lf 1019,7 hPa 0,0 l/m 0 min 0 min 0 W/m 12,6 km/h (3 Bft) 93,62 %
06.09.2015 04:16 9,6 C 9,4 C 8,3 C 93 % 1 lf 1019,7 hPa 0,0 l/m 0 min 0 min 0 W/m 10,5 km/h (2 Bft) 89,13 %
06.09.2015 04:18 9,6 C 9,4 C 8,3 C 93 % 1 lf 1019,7 hPa 0,0 l/m 0 min 0 min 0 W/m 14,6 km/h (3 Bft) 91,49 %
06.09.2015 04:20 9,6 C 10,0 C 8,3 C 93 % 1 lf 1019,6 hPa 0,0 l/m 0 min 0 min 0 W/m 16,7 km/h (3 Bft) 93,62 %
06.09.2015 04:22 9,6 C 10,0 C 8,3 C 93 % 1 lf 1019,7 hPa 0,0 l/m 0 min 0 min 0 W/m 14,6 km/h (3 Bft) 95,74 %
06.09.2015 04:24 9,6 C 10,0 C 8,3 C 93 % 1 lf 1019,7 hPa 0,0 l/m 0 min 0 min 0 W/m 10,5 km/h (2 Bft) 95,74 %
06.09.2015 04:26 9,6 C 10,0 C 8,3 C 93 % 1 lf 1019,7 hPa 0,0 l/m 0 min 0 min 0 W/m 14,6 km/h (3 Bft) 97,87 %
06.09.2015 04:28 9,6 C 10,0 C 8,3 C 93 % 1 lf 1019,7 hPa 0,0 l/m 0 min 0 min 0 W/m 16,7 km/h (3 Bft) 100,00 %
06.09.2015 04:30 9,6 C 10,0 C 8,3 C 93 % 1 lf 1019,8 hPa 0,0 l/m 0 min 0 min 0 W/m 14,6 km/h (3 Bft) 100,00 %
06.09.2015 04:32 9,6 C 10,0 C 8,3 C 93 % 1 lf 1019,7 hPa 0,0 l/m 0 min 0 min 0 W/m 14,6 km/h (3 Bft) 100,00 %
06.09.2015 04:34 9,6 C 10,0 C 8,3 C 93 % 1 lf 1019,7 hPa 0,0 l/m 0 min 0 min 0 W/m 18,8 km/h (3 Bft) 100,00 %
06.09.2015 04:36 9,7 C 10,0 C 8,3 C 93 % 1 lf 1019,8 hPa 0,0 l/m 0 min 0 min 0 W/m 12,6 km/h (3 Bft) 97,87 %
06.09.2015 04:38 9,6 C 10,0 C 8,3 C 93 % 1 lf 1019,8 hPa 0,0 l/m 0 min 0 min 0 W/m 14,6 km/h (3 Bft) 100,00 %
06.09.2015 04:40 9,6 C 10,0 C 8,3 C 93 % 1 lf 1019,8 hPa 0,0 l/m 0 min 0 min 0 W/m 14,6 km/h (3 Bft) 95,65 %
06.09.2015 04:42 9,7 C 10,0 C 8,3 C 93 % 1 lf 1019,8 hPa 0,0 l/m 0 min 0 min 0 W/m 14,6 km/h (3 Bft) 100,00 %
06.09.2015 04:44 9,7 C 10,0 C 8,3 C 93 % 0 lf 1019,8 hPa 0,0 l/m 0 min 0 min 0 W/m 16,7 km/h (3 Bft) 100,00 %
06.09.2015 04:46 9,7 C 10,0 C 8,3 C 93 % 0 lf 1019,8 hPa 0,0 l/m 0 min 0 min 0 W/m 12,6 km/h (3 Bft) 97,87 %
06.09.2015 04:48 9,7 C 10,0 C 8,3 C 93 % 0 lf 1019,7 hPa 0,0 l/m 0 min 0 min 0 W/m 12,6 km/h (3 Bft) 97,87 %
06.09.2015 04:50 9,7 C 10,0 C 8,3 C 93 % 0 lf 1019,7 hPa 0,0 l/m 0 min 0 min 0 W/m 16,7 km/h (3 Bft) 100,00 %
06.09.2015 04:52 9,7 C 10,0 C 8,3 C 93 % 0 lf 1019,8 hPa 0,0 l/m 0 min 0 min 0 W/m 14,6 km/h (3 Bft) 97,83 %
06.09.2015 04:54 9,7 C 10,0 C 8,3 C 93 % 1 lf 1019,8 hPa 0,0 l/m 0 min 0 min 0 W/m 10,5 km/h (2 Bft) 100,00 %
06.09.2015 04:56 9,7 C 10,0 C 8,3 C 93 % 0 lf 1019,8 hPa 0,0 l/m 0 min 0 min 0 W/m 18,8 km/h (3 Bft) 97,87 %
06.09.2015 04:58 9,7 C 10,0 C 8,3 C 93 % 0 lf 1019,8 hPa 0,0 l/m 0 min 0 min 0 W/m 16,7 km/h (3 Bft) 97,87 %
06.09.2015 05:00 9,7 C 10,0 C 8,3 C 93 % 1 lf 1019,8 hPa 0,0 l/m 0 min 0 min 0 W/m 12,6 km/h (3 Bft) 97,87 %
06.09.2015 05:02 9,7 C 10,0 C 8,3 C 93 % 1 lf 1019,9 hPa 0,0 l/m 0 min 0 min 0 W/m 8,4 km/h (2 Bft) 97,87 %
06.09.2015 05:04 9,7 C 9,4 C 8,3 C 93 % 1 lf 1019,8 hPa 0,0 l/m 0 min 0 min 0 W/m 12,6 km/h (3 Bft) 100,00 %
06.09.2015 05:06 9,7 C 9,4 C 8,3 C 93 % 1 lf 1019,8 hPa 0,0 l/m 0 min 0 min 0 W/m 14,6 km/h (3 Bft) 100,00 %
06.09.2015 05:08 9,6 C 9,4 C 8,3 C 93 % 1 lf 1019,8 hPa 0,0 l/m 0 min 0 min 0 W/m 18,8 km/h (3 Bft) 100,00 %
06.09.2015 05:10 9,6 C 9,4 C 8,3 C 93 % 1 lf 1019,8 hPa 0,0 l/m 0 min 0 min 0 W/m 14,6 km/h (3 Bft) 100,00 %
06.09.2015 05:12 9,6 C 9,4 C 8,3 C 92 % 1 lf 1019,8 hPa 0,0 l/m 0 min 0 min 0 W/m 12,6 km/h (3 Bft) 97,87 %
06.09.2015 05:14 9,6 C 9,4 C 8,3 C 92 % 1 lf 1019,9 hPa 0,0 l/m 0 min 0 min 0 W/m 12,6 km/h (3 Bft) 97,83 %
06.09.2015 05:16 9,6 C 9,4 C 8,3 C 92 % 1 lf 1019,9 hPa 0,0 l/m 0 min 0 min 0 W/m 10,5 km/h (2 Bft) 95,74 %
06.09.2015 05:18 9,6 C 9,4 C 8,3 C 92 % 1 lf 1019,8 hPa 0,0 l/m 0 min 0 min 0 W/m 12,6 km/h (3 Bft) 95,74 %
06.09.2015 05:20 9,6 C 9,4 C 8,3 C 92 % 1 lf 1019,9 hPa 0,0 l/m 0 min 0 min 0 W/m 14,6 km/h (3 Bft) 97,87 %
06.09.2015 05:22 9,6 C 9,4 C 8,3 C 92 % 1 lf 1019,9 hPa 0,0 l/m 0 min 0 min 0 W/m 12,6 km/h (3 Bft) 100,00 %
06.09.2015 05:24 9,6 C 9,4 C 8,3 C 92 % 1 lf 1019,9 hPa 0,0 l/m 0 min 0 min 0 W/m 14,6 km/h (3 Bft) 100,00 %
06.09.2015 05:26 9,6 C 9,4 C 8,3 C 92 % 1 lf 1020,0 hPa 0,0 l/m 0 min 0 min 0 W/m 14,6 km/h (3 Bft) 100,00 %
06.09.2015 05:28 9,6 C 9,4 C 8,3 C 92 % 1 lf 1020,0 hPa 0,0 l/m 0 min 0 min 0 W/m 16,7 km/h (3 Bft) 95,74 %
06.09.2015 05:30 9,5 C 9,4 C 8,3 C 92 % 1 lf 1020,0 hPa 0,0 l/m 0 min 0 min 0 W/m 16,7 km/h (3 Bft) 100,00 %
06.09.2015 05:32 9,5 C 9,4 C 8,3 C 92 % 1 lf 1020,0 hPa 0,0 l/m 0 min 0 min 0 W/m 12,6 km/h (3 Bft) 100,00 %
06.09.2015 05:34 9,5 C 8,9 C 8,3 C 92 % 1 lf 1020,0 hPa 0,0 l/m 0 min 0 min 0 W/m 14,6 km/h (3 Bft) 97,87 %
06.09.2015 05:36 9,4 C 8,9 C 7,8 C 92 % 1 lf 1020,1 hPa 0,0 l/m 0 min 0 min 0 W/m 14,6 km/h (3 Bft) 97,87 %
06.09.2015 05:38 9,4 C 8,9 C 7,8 C 92 % 1 lf 1020,0 hPa 0,0 l/m 0 min 0 min 0 W/m 12,6 km/h (3 Bft) 97,83 %
06.09.2015 05:40 9,4 C 8,9 C 7,8 C 92 % 1 lf 1020,1 hPa 0,0 l/m 0 min 0 min 0 W/m 12,6 km/h (3 Bft) 100,00 %
06.09.2015 05:42 9,4 C 8,9 C 7,8 C 92 % 1 lf 1020,1 hPa 0,0 l/m 0 min 0 min 0 W/m 12,6 km/h (3 Bft) 95,74 %
06.09.2015 05:44 9,4 C 8,9 C 7,8 C 92 % 1 lf 1020,1 hPa 0,0 l/m 0 min 0 min 0 W/m 14,6 km/h (3 Bft) 97,87 %
06.09.2015 05:46 9,3 C 8,9 C 7,8 C 92 % 1 lf 1020,2 hPa 0,0 l/m 0 min 0 min 0 W/m 8,4 km/h (2 Bft) 97,87 %
06.09.2015 05:48 9,3 C 8,3 C 7,8 C 92 % 1 lf 1020,2 hPa 0,0 l/m 0 min 0 min 0 W/m 8,4 km/h (2 Bft) 97,87 %
06.09.2015 05:50 9,3 C 8,3 C 7,8 C 92 % 1 lf 1020,3 hPa 0,0 l/m 0 min 0 min 0 W/m 10,5 km/h (2 Bft) 97,83 %
06.09.2015 05:52 9,2 C 8,3 C 7,8 C 92 % 1 lf 1020,2 hPa 0,0 l/m 0 min 0 min 0 W/m 10,5 km/h (2 Bft) 97,87 %
06.09.2015 05:54 9,2 C 8,3 C 7,8 C 92 % 1 lf 1020,2 hPa 0,0 l/m 0 min 0 min 0 W/m 10,5 km/h (2 Bft) 93,62 %
06.09.2015 05:56 9,2 C 8,3 C 7,8 C 92 % 1 lf 1020,1 hPa 0,0 l/m 0 min 0 min 0 W/m 6,3 km/h (2 Bft) 97,87 %
06.09.2015 05:58 9,2 C 8,3 C 7,8 C 92 % 1 lf 1020,1 hPa 0,0 l/m 0 min 0 min 0 W/m 8,4 km/h (2 Bft) 95,74 %
06.09.2015 06:00 9,2 C 8,3 C 7,2 C 92 % 1 lf 1020,2 hPa 0,0 l/m 0 min 0 min 0 W/m 8,4 km/h (2 Bft) 95,74 %
06.09.2015 06:02 9,1 C 8,3 C 7,2 C 92 % 1 lf 1020,3 hPa 0,0 l/m 0 min 0 min 0 W/m 8,4 km/h (2 Bft) 100,00 %
06.09.2015 06:05 9,1 C 8,3 C 7,2 C 92 % 1 lf 1020,1 hPa 0,0 l/m 0 min 0 min 0 W/m 12,6 km/h (3 Bft) 97,10 %
06.09.2015 06:06 9,1 C 8,3 C 7,2 C 92 % 1 lf 1020,1 hPa 0,0 l/m 0 min 0 min 0 W/m 12,6 km/h (3 Bft) 100,00 %
06.09.2015 06:08 9,0 C 8,3 C 7,2 C 92 % 1 lf 1020,2 hPa 0,0 l/m 0 min 0 min 0 W/m 16,7 km/h (3 Bft) 93,62 %
06.09.2015 06:10 9,0 C 8,3 C 7,2 C 92 % 1 lf 1020,3 hPa 0,0 l/m 0 min 0 min 0 W/m 12,6 km/h (3 Bft) 97,87 %
06.09.2015 06:12 8,9 C 8,3 C 7,2 C 92 % 1 lf 1020,3 hPa 0,0 l/m 0 min 0 min 0 W/m 10,5 km/h (2 Bft) 100,00 %
06.09.2015 06:14 8,9 C 7,8 C 7,2 C 92 % 1 lf 1020,3 hPa 0,0 l/m 0 min 0 min 0 W/m 10,5 km/h (2 Bft) 95,74 %
06.09.2015 06:16 8,9 C 8,3 C 7,2 C 92 % 1 lf 1020,3 hPa 0,0 l/m 0 min 0 min 0 W/m 10,5 km/h (2 Bft) 91,49 %
06.09.2015 06:18 8,9 C 8,3 C 7,2 C 92 % 1 lf 1020,4 hPa 0,0 l/m 0 min 0 min 0 W/m 12,6 km/h (3 Bft) 97,83 %
06.09.2015 06:20 8,8 C 7,8 C 7,2 C 92 % 1 lf 1020,4 hPa 0,0 l/m 0 min 0 min 0 W/m 4,2 km/h (1 Bft) 95,74 %
06.09.2015 06:22 8,8 C 7,8 C 7,2 C 92 % 1 lf 1020,5 hPa 0,0 l/m 0 min 0 min 0 W/m 12,6 km/h (3 Bft) 97,87 %
06.09.2015 06:24 8,8 C 7,8 C 7,2 C 92 % 1 lf 1020,4 hPa 0,0 l/m 0 min 0 min 0 W/m 10,5 km/h (2 Bft) 95,74 %
06.09.2015 06:26 8,8 C 8,3 C 7,2 C 92 % 1 lf 1020,5 hPa 0,0 l/m 0 min 0 min 0 W/m 8,4 km/h (2 Bft) 97,87 %
06.09.2015 06:28 8,7 C 8,3 C 7,8 C 92 % 1 lf 1020,4 hPa 0,0 l/m 0 min 0 min 0 W/m 10,5 km/h (2 Bft) 97,87 %
06.09.2015 06:30 8,7 C 8,3 C 7,8 C 92 % 1 lf 1020,5 hPa 0,0 l/m 0 min 0 min 0 W/m 10,5 km/h (2 Bft) 97,83 %
06.09.2015 06:32 8,7 C 8,3 C 7,8 C 92 % 1 lf 1020,6 hPa 0,0 l/m 0 min 0 min 0 W/m 8,4 km/h (2 Bft) 95,74 %
06.09.2015 06:34 8,7 C 8,3 C 7,8 C 92 % 1 lf 1020,6 hPa 0,0 l/m 0 min 0 min 0 W/m 8,4 km/h (2 Bft) 95,74 %
06.09.2015 06:36 8,7 C 8,3 C 7,8 C 92 % 1 lf 1020,6 hPa 0,0 l/m 0 min 0 min 0 W/m 14,6 km/h (3 Bft) 95,74 %
06.09.2015 06:38 8,7 C 8,3 C 7,8 C 92 % 1 lf 1020,7 hPa 0,0 l/m 0 min 0 min 0 W/m 10,5 km/h (2 Bft) 97,87 %
06.09.2015 06:40 8,7 C 8,9 C 7,8 C 92 % 1 lf 1020,6 hPa 0,0 l/m 0 min 0 min 0 W/m 14,6 km/h (3 Bft) 95,65 %
06.09.2015 06:42 8,7 C 8,9 C 7,8 C 92 % 1 lf 1020,6 hPa 0,0 l/m 0 min 0 min 0 W/m 16,7 km/h (3 Bft) 95,74 %
06.09.2015 06:44 8,7 C 8,9 C 7,8 C 93 % 1 lf 1020,6 hPa 0,0 l/m 0 min 0 min 0 W/m 14,6 km/h (3 Bft) 91,49 %
06.09.2015 06:46 8,7 C 8,9 C 7,8 C 93 % 1 lf 1020,6 hPa 0,0 l/m 0 min 0 min 0 W/m 10,5 km/h (2 Bft) 93,62 %
06.09.2015 06:48 8,7 C 8,9 C 7,8 C 93 % 1 lf 1020,7 hPa 0,0 l/m 0 min 0 min 0 W/m 12,6 km/h (3 Bft) 95,74 %
06.09.2015 06:50 8,7 C 8,9 C 7,8 C 93 % 1 lf 1020,7 hPa 0,0 l/m 0 min 0 min 0 W/m 14,6 km/h (3 Bft) 91,49 %
06.09.2015 06:52 8,8 C 8,9 C 7,8 C 93 % 1 lf 1020,7 hPa 0,0 l/m 0 min 0 min 4 W/m 10,5 km/h (2 Bft) 93,48 %
06.09.2015 06:54 8,7 C 8,3 C 7,8 C 93 % 1 lf 1020,7 hPa 0,0 l/m 0 min 0 min 5 W/m 12,6 km/h (3 Bft) 93,62 %
06.09.2015 06:56 8,7 C 8,3 C 7,8 C 93 % 1 lf 1020,7 hPa 0,0 l/m 0 min 0 min 6 W/m 10,5 km/h (2 Bft) 91,49 %
06.09.2015 06:58 8,7 C 8,3 C 7,2 C 93 % 1 lf 1020,7 hPa 0,0 l/m 0 min 0 min 7 W/m 6,3 km/h (2 Bft) 93,62 %
06.09.2015 07:00 8,7 C 8,3 C 7,2 C 93 % 1 lf 1020,8 hPa 0,0 l/m 0 min 0 min 8 W/m 8,4 km/h (2 Bft) 93,62 %
06.09.2015 07:02 8,7 C 8,3 C 7,2 C 93 % 1 lf 1020,8 hPa 0,0 l/m 0 min 0 min 9 W/m 12,6 km/h (3 Bft) 95,74 %
06.09.2015 07:04 8,7 C 8,3 C 7,2 C 93 % 1 lf 1020,8 hPa 0,0 l/m 0 min 0 min 11 W/m 8,4 km/h (2 Bft) 95,65 %
06.09.2015 07:06 8,7 C 8,3 C 7,2 C 93 % 1 lf 1020,8 hPa 0,0 l/m 0 min 0 min 11 W/m 12,6 km/h (3 Bft) 95,74 %
06.09.2015 07:08 8,7 C 8,3 C 7,2 C 93 % 1 lf 1020,8 hPa 0,0 l/m 0 min 0 min 12 W/m 10,5 km/h (2 Bft) 95,74 %
06.09.2015 07:10 8,7 C 8,3 C 7,2 C 93 % 1 lf 1020,9 hPa 0,0 l/m 0 min 0 min 14 W/m 6,3 km/h (2 Bft) 95,74 %
06.09.2015 07:12 8,7 C 8,3 C 7,2 C 93 % 1 lf 1020,8 hPa 0,0 l/m 0 min 0 min 16 W/m 14,6 km/h (3 Bft) 93,62 %
06.09.2015 07:14 8,7 C 8,3 C 7,8 C 93 % 1 lf 1020,9 hPa 0,0 l/m 2 min 0 min 19 W/m 14,6 km/h (3 Bft) 95,74 %
06.09.2015 07:16 8,6 C 8,3 C 7,8 C 93 % 1 lf 1020,9 hPa 0,0 l/m 2 min 0 min 24 W/m 10,5 km/h (2 Bft) 93,48 %
06.09.2015 07:18 8,6 C 8,3 C 7,8 C 93 % 1 lf 1020,9 hPa 0,0 l/m 2 min 0 min 27 W/m 8,4 km/h (2 Bft) 95,74 %
06.09.2015 07:20 8,6 C 8,9 C 7,8 C 93 % 1 lf 1021,0 hPa 0,0 l/m 2 min 0 min 30 W/m 12,6 km/h (3 Bft) 95,74 %
06.09.2015 07:22 8,7 C 8,9 C 7,8 C 93 % 1 lf 1020,9 hPa 0,0 l/m 2 min 0 min 32 W/m 10,5 km/h (2 Bft) 93,62 %
06.09.2015 07:24 8,7 C 8,9 C 7,8 C 93 % 1 lf 1021,0 hPa 0,0 l/m 2 min 0 min 38 W/m 12,6 km/h (3 Bft) 95,74 %
06.09.2015 07:26 8,7 C 8,9 C 7,8 C 93 % 1 lf 1021,0 hPa 0,0 l/m 2 min 0 min 44 W/m 12,6 km/h (3 Bft) 93,62 %
06.09.2015 07:28 8,7 C 8,9 C 7,8 C 93 % 1 lf 1021,0 hPa 0,0 l/m 2 min 0 min 48 W/m 8,4 km/h (2 Bft) 97,83 %
06.09.2015 07:30 8,7 C 8,9 C 7,8 C 93 % 1 lf 1021,1 hPa 0,0 l/m 2 min 0 min 49 W/m 12,6 km/h (3 Bft) 95,74 %
06.09.2015 07:32 8,7 C 8,9 C 7,8 C 94 % 1 lf 1021,1 hPa 0,0 l/m 2 min 0 min 53 W/m 10,5 km/h (2 Bft) 91,49 %
06.09.2015 07:34 8,7 C 8,9 C 7,8 C 94 % 1 lf 1021,2 hPa 0,0 l/m 2 min 0 min 56 W/m 10,5 km/h (2 Bft) 91,49 %
06.09.2015 07:36 8,7 C 8,9 C 7,8 C 94 % 1 lf 1021,2 hPa 0,0 l/m 2 min 0 min 58 W/m 12,6 km/h (3 Bft) 95,74 %
06.09.2015 07:38 8,7 C 8,9 C 7,8 C 94 % 1 lf 1021,2 hPa 0,0 l/m 2 min 0 min 60 W/m 8,4 km/h (2 Bft) 95,74 %
06.09.2015 07:40 8,7 C 8,9 C 7,8 C 94 % 1 lf 1021,2 hPa 0,0 l/m 2 min 0 min 64 W/m 14,6 km/h (3 Bft) 95,65 %
06.09.2015 07:42 8,7 C 8,9 C 7,8 C 94 % 1 lf 1021,2 hPa 0,0 l/m 2 min 0 min 56 W/m 10,5 km/h (2 Bft) 95,74 %
06.09.2015 07:44 8,7 C 8,9 C 7,8 C 94 % 1 lf 1021,2 hPa 0,0 l/m 2 min 0 min 64 W/m 10,5 km/h (2 Bft) 91,49 %
06.09.2015 07:46 8,7 C 8,9 C 7,8 C 94 % 1 lf 1021,2 hPa 0,0 l/m 2 min 0 min 76 W/m 10,5 km/h (2 Bft) 95,74 %
06.09.2015 07:48 8,7 C 8,9 C 7,8 C 94 % 1 lf 1021,3 hPa 0,0 l/m 0 min 0 min 62 W/m 10,5 km/h (2 Bft) 95,74 %
06.09.2015 07:50 8,7 C 8,9 C 7,8 C 94 % 1 lf 1021,3 hPa 0,0 l/m 2 min 0 min 84 W/m 10,5 km/h (2 Bft) 93,62 %
06.09.2015 07:52 8,7 C 8,9 C 7,8 C 94 % 1 lf 1021,3 hPa 0,0 l/m 2 min 0 min 96 W/m 10,5 km/h (2 Bft) 93,48 %
06.09.2015 07:54 8,8 C 9,4 C 7,8 C 94 % 1 lf 1021,3 hPa 0,0 l/m 2 min 0 min 102 W/m 10,5 km/h (2 Bft) 93,62 %
06.09.2015 07:56 8,8 C 9,4 C 7,8 C 94 % 1 lf 1021,3 hPa 0,0 l/m 2 min 0 min 109 W/m 12,6 km/h (3 Bft) 95,74 %
06.09.2015 07:58 8,8 C 9,4 C 7,8 C 94 % 1 lf 1021,4 hPa 0,0 l/m 2 min 0 min 116 W/m 4,2 km/h (1 Bft) 95,74 %
06.09.2015 08:00 8,8 C 9,4 C 8,3 C 94 % 1 lf 1021,5 hPa 0,0 l/m 2 min 0 min 121 W/m 6,3 km/h (2 Bft) 95,74 %
06.09.2015 08:02 8,8 C 9,4 C 8,3 C 94 % 1 lf 1021,4 hPa 0,0 l/m 2 min 0 min 120 W/m 10,5 km/h (2 Bft) 97,83 %
06.09.2015 08:04 8,8 C 9,4 C 8,3 C 94 % 1 lf 1021,4 hPa 0,0 l/m 2 min 0 min 129 W/m 8,4 km/h (2 Bft) 97,87 %
06.09.2015 08:06 8,8 C 9,4 C 8,3 C 94 % 1 lf 1021,5 hPa 0,0 l/m 2 min 0 min 138 W/m 14,6 km/h (3 Bft) 100,00 %
06.09.2015 08:08 8,9 C 10,0 C 8,3 C 94 % 1 lf 1021,5 hPa 0,0 l/m 2 min 0 min 147 W/m 10,5 km/h (2 Bft) 100,00 %
06.09.2015 08:10 8,9 C 10,0 C 8,3 C 94 % 0 lf 1021,5 hPa 0,0 l/m 2 min 0 min 154 W/m 18,8 km/h (3 Bft) 100,00 %
06.09.2015 08:12 8,9 C 10,0 C 8,9 C 94 % 0 lf 1021,5 hPa 0,0 l/m 2 min 0 min 157 W/m 12,6 km/h (3 Bft) 100,00 %
06.09.2015 08:14 9,0 C 10,6 C 8,9 C 94 % 0 lf 1021,5 hPa 0,0 l/m 2 min 0 min 169 W/m 14,6 km/h (3 Bft) 97,83 %
06.09.2015 08:16 9,1 C 10,6 C 8,9 C 94 % 0 lf 1021,5 hPa 0,0 l/m 2 min 0 min 180 W/m 12,6 km/h (3 Bft) 100,00 %
06.09.2015 08:18 9,1 C 10,6 C 8,9 C 94 % 0 lf 1021,5 hPa 0,0 l/m 2 min 0 min 191 W/m 14,6 km/h (3 Bft) 95,74 %
06.09.2015 08:20 9,2 C 10,6 C 8,9 C 94 % 0 lf 1021,5 hPa 0,0 l/m 2 min 0 min 202 W/m 12,6 km/h (3 Bft) 100,00 %
06.09.2015 08:22 9,2 C 11,1 C 9,4 C 94 % 0 lf 1021,4 hPa 0,0 l/m 2 min 0 min 213 W/m 12,6 km/h (3 Bft) 100,00 %
06.09.2015 08:24 9,3 C 11,1 C 9,4 C 94 % 0 lf 1021,5 hPa 0,0 l/m 2 min 0 min 227 W/m 10,5 km/h (2 Bft) 95,74 %
06.09.2015 08:26 9,4 C 11,1 C 9,4 C 94 % 0 lf 1021,5 hPa 0,0 l/m 2 min 0 min 236 W/m 10,5 km/h (2 Bft) 95,65 %
06.09.2015 08:28 9,4 C 11,7 C 9,4 C 94 % 0 lf 1021,5 hPa 0,0 l/m 2 min 0 min 214 W/m 12,6 km/h (3 Bft) 97,87 %
06.09.2015 08:30 9,5 C 11,7 C 9,4 C 94 % 0 lf 1021,5 hPa 0,0 l/m 2 min 0 min 177 W/m 8,4 km/h (2 Bft) 100,00 %
06.09.2015 08:32 9,6 C 11,7 C 9,4 C 94 % 0 lf 1021,6 hPa 0,0 l/m 2 min 0 min 142 W/m 16,7 km/h (3 Bft) 100,00 %
06.09.2015 08:34 9,7 C 11,7 C 9,4 C 94 % 0 lf 1021,5 hPa 0,0 l/m 2 min 0 min 237 W/m 16,7 km/h (3 Bft) 100,00 %
06.09.2015 08:36 9,7 C 11,7 C 9,4 C 94 % 0 lf 1021,6 hPa 0,0 l/m 2 min 0 min 213 W/m 8,4 km/h (2 Bft) 100,00 %
06.09.2015 08:38 9,8 C 11,7 C 9,4 C 94 % 0 lf 1021,6 hPa 0,0 l/m 2 min 0 min 157 W/m 16,7 km/h (3 Bft) 100,00 %
06.09.2015 08:40 9,9 C 11,7 C 10,0 C 94 % 0 lf 1021,6 hPa 0,0 l/m 2 min 0 min 150 W/m 23,0 km/h (4 Bft) 100,00 %
06.09.2015 08:42 9,9 C 12,2 C 10,0 C 94 % 0 lf 1021,6 hPa 0,0 l/m 2 min 0 min 283 W/m 16,7 km/h (3 Bft) 97,87 %
06.09.2015 08:44 9,9 C 12,2 C 10,0 C 94 % 0 lf 1021,6 hPa 0,0 l/m 2 min 0 min 250 W/m 12,6 km/h (3 Bft) 100,00 %
06.09.2015 08:46 10,1 C 12,2 C 10,0 C 94 % 0 lf 1021,7 hPa 0,0 l/m 2 min 0 min 271 W/m 16,7 km/h (3 Bft) 100,00 %
06.09.2015 08:48 10,1 C 12,2 C 10,0 C 94 % 0 lf 1021,6 hPa 0,0 l/m 2 min 0 min 270 W/m 14,6 km/h (3 Bft) 100,00 %
06.09.2015 08:50 10,2 C 12,2 C 10,0 C 94 % 0 lf 1021,6 hPa 0,0 l/m 2 min 0 min 276 W/m 12,6 km/h (3 Bft) 95,65 %
06.09.2015 08:52 10,3 C 12,8 C 10,0 C 94 % 0 lf 1021,7 hPa 0,0 l/m 2 min 0 min 285 W/m 18,8 km/h (3 Bft) 97,87 %
06.09.2015 08:54 10,3 C 12,2 C 10,0 C 93 % 0 lf 1021,6 hPa 0,0 l/m 2 min 0 min 220 W/m 20,9 km/h (4 Bft) 97,87 %
06.09.2015 08:56 10,4 C 12,8 C 10,0 C 93 % 0 lf 1021,6 hPa 0,0 l/m 2 min 0 min 288 W/m 18,8 km/h (3 Bft) 97,87 %
06.09.2015 08:58 10,5 C 12,8 C 10,6 C 93 % 0 lf 1021,6 hPa 0,0 l/m 2 min 0 min 236 W/m 14,6 km/h (3 Bft) 95,74 %
06.09.2015 09:00 10,6 C 12,8 C 10,6 C 93 % 0 lf 1021,6 hPa 0,0 l/m 2 min 0 min 204 W/m 14,6 km/h (3 Bft) 97,83 %
06.09.2015 09:02 10,7 C 13,3 C 10,6 C 93 % 0 lf 1021,6 hPa 0,0 l/m 2 min 0 min 289 W/m 12,6 km/h (3 Bft) 95,74 %
06.09.2015 09:04 10,8 C 13,9 C 10,6 C 93 % 0 lf 1021,7 hPa 0,0 l/m 2 min 0 min 329 W/m 18,8 km/h (3 Bft) 97,87 %
06.09.2015 09:06 10,9 C 15,0 C 10,6 C 92 % 0 lf 1021,7 hPa 0,0 l/m 2 min 0 min 356 W/m 16,7 km/h (3 Bft) 97,87 %
06.09.2015 09:08 10,9 C 16,1 C 10,6 C 92 % 0 lf 1021,7 hPa 0,0 l/m 2 min 0 min 345 W/m 18,8 km/h (3 Bft) 93,62 %
06.09.2015 09:10 11,1 C 17,2 C 10,6 C 92 % 0 lf 1021,7 hPa 0,0 l/m 2 min 0 min 336 W/m 23,0 km/h (4 Bft) 97,87 %
06.09.2015 09:12 11,2 C 18,3 C 10,6 C 91 % 0 lf 1021,8 hPa 0,0 l/m 2 min 0 min 336 W/m 16,7 km/h (3 Bft) 95,65 %
06.09.2015 09:14 11,3 C 18,3 C 10,6 C 91 % 0 lf 1021,8 hPa 0,0 l/m 2 min 0 min 331 W/m 20,9 km/h (4 Bft) 97,87 %
06.09.2015 09:16 11,4 C 18,9 C 11,1 C 91 % 0 lf 1021,8 hPa 0,0 l/m 2 min 0 min 335 W/m 18,8 km/h (3 Bft) 97,87 %
06.09.2015 09:18 11,5 C 19,4 C 11,1 C 91 % 0 lf 1021,9 hPa 0,0 l/m 2 min 0 min 344 W/m 10,5 km/h (2 Bft) 93,62 %
06.09.2015 09:20 11,6 C 20,0 C 11,1 C 91 % 0 lf 1021,9 hPa 0,0 l/m 2 min 0 min 352 W/m 18,8 km/h (3 Bft) 95,74 %
06.09.2015 09:22 11,7 C 20,0 C 11,1 C 90 % 0 lf 1021,8 hPa 0,0 l/m 2 min 0 min 362 W/m 16,7 km/h (3 Bft) 95,74 %
06.09.2015 09:24 11,8 C 20,0 C 11,1 C 90 % 0 lf 1021,9 hPa 0,0 l/m 2 min 0 min 367 W/m 25,1 km/h (4 Bft) 95,65 %
06.09.2015 09:26 11,9 C 20,6 C 11,1 C 89 % 0 lf 1021,9 hPa 0,0 l/m 2 min 0 min 370 W/m 20,9 km/h (4 Bft) 95,74 %
06.09.2015 09:28 12,1 C 20,6 C 11,7 C 89 % 0 lf 1022,0 hPa 0,0 l/m 2 min 0 min 378 W/m 20,9 km/h (4 Bft) 93,62 %
06.09.2015 09:30 12,2 C 20,6 C 11,7 C 88 % 0 lf 1021,9 hPa 0,0 l/m 2 min 0 min 384 W/m 16,7 km/h (3 Bft) 93,62 %
06.09.2015 09:32 12,3 C 20,0 C 11,7 C 88 % 0 lf 1021,9 hPa 0,0 l/m 2 min 0 min 389 W/m 20,9 km/h (4 Bft) 95,74 %
06.09.2015 09:34 12,4 C 21,1 C 11,7 C 87 % 0 lf 1022,0 hPa 0,0 l/m 2 min 0 min 394 W/m 20,9 km/h (4 Bft) 93,62 %
06.09.2015 09:36 12,5 C 21,1 C 11,7 C 87 % 0 lf 1022,0 hPa 0,0 l/m 2 min 0 min 399 W/m 18,8 km/h (3 Bft) 95,65 %
06.09.2015 09:38 12,6 C 22,2 C 12,2 C 87 % 0 lf 1022,0 hPa 0,0 l/m 2 min 0 min 405 W/m 20,9 km/h (4 Bft) 91,49 %
06.09.2015 09:40 12,7 C 21,1 C 12,8 C 86 % 0 lf 1022,0 hPa 0,0 l/m 2 min 0 min 408 W/m 20,9 km/h (4 Bft) 91,49 %
06.09.2015 09:42 12,8 C 21,1 C 12,8 C 85 % 0 lf 1022,1 hPa 0,0 l/m 2 min 0 min 415 W/m 18,8 km/h (3 Bft) 93,62 %
06.09.2015 09:44 12,9 C 20,6 C 13,9 C 85 % 0 lf 1022,1 hPa 0,0 l/m 2 min 0 min 419 W/m 16,7 km/h (3 Bft) 95,74 %
06.09.2015 09:46 12,9 C 20,6 C 15,0 C 84 % 0 lf 1022,0 hPa 0,0 l/m 2 min 0 min 428 W/m 23,0 km/h (4 Bft) 93,62 %
06.09.2015 09:48 13,1 C 21,1 C 16,1 C 83 % 0 lf 1022,1 hPa 0,0 l/m 2 min 0 min 434 W/m 18,8 km/h (3 Bft) 93,48 %
06.09.2015 09:50 13,1 C 21,1 C 16,7 C 83 % 0 lf 1022,1 hPa 0,0 l/m 2 min 0 min 440 W/m 18,8 km/h (3 Bft) 95,74 %
06.09.2015 09:52 13,2 C 21,7 C 16,7 C 83 % 0 lf 1022,1 hPa 0,0 l/m 2 min 0 min 448 W/m 20,9 km/h (4 Bft) 95,74 %
06.09.2015 09:54 13,3 C 20,6 C 16,1 C 83 % 0 lf 1022,1 hPa 0,0 l/m 2 min 0 min 398 W/m 18,8 km/h (3 Bft) 95,74 %
06.09.2015 09:56 13,4 C 20,6 C 16,1 C 82 % 0 lf 1022,1 hPa 0,0 l/m 2 min 0 min 368 W/m 18,8 km/h (3 Bft) 95,74 %
06.09.2015 09:58 13,5 C 21,7 C 16,7 C 82 % 0 lf 1022,1 hPa 0,0 l/m 2 min 0 min 423 W/m 20,9 km/h (4 Bft) 95,74 %
06.09.2015 10:00 13,6 C 21,7 C 16,1 C 82 % 0 lf 1022,1 hPa 0,0 l/m 2 min 0 min 381 W/m 20,9 km/h (4 Bft) 95,65 %
06.09.2015 10:02 13,7 C 21,7 C 16,7 C 82 % 0 lf 1022,1 hPa 0,0 l/m 2 min 0 min 451 W/m 18,8 km/h (3 Bft) 95,74 %
06.09.2015 10:04 13,7 C 19,4 C 15,6 C 81 % 0 lf 1022,1 hPa 0,0 l/m 2 min 0 min 402 W/m 29,3 km/h (5 Bft) 95,74 %
06.09.2015 10:06 13,7 C 18,9 C 15,0 C 80 % 0 lf 1022,2 hPa 0,0 l/m 2 min 0 min 275 W/m 23,0 km/h (4 Bft) 95,74 %
06.09.2015 10:08 13,7 C 17,8 C 14,4 C 80 % 0 lf 1022,1 hPa 0,0 l/m 0 min 0 min 206 W/m 16,7 km/h (3 Bft) 97,87 %
06.09.2015 10:10 13,7 C 17,8 C 13,9 C 80 % 0 lf 1022,1 hPa 0,0 l/m 2 min 0 min 242 W/m 16,7 km/h (3 Bft) 97,87 %
06.09.2015 10:12 13,7 C 16,7 C 13,9 C 80 % 0 lf 1022,1 hPa 0,0 l/m 2 min 0 min 247 W/m 20,9 km/h (4 Bft) 97,83 %
06.09.2015 10:14 13,7 C 16,7 C 13,3 C 80 % 0 lf 1022,1 hPa 0,0 l/m 0 min 0 min 227 W/m 18,8 km/h (3 Bft) 97,87 %
06.09.2015 10:16 13,7 C 17,2 C 13,9 C 80 % 0 lf 1022,2 hPa 0,0 l/m 2 min 0 min 252 W/m 14,6 km/h (3 Bft) 97,87 %
06.09.2015 10:18 13,7 C 17,2 C 13,9 C 80 % 0 lf 1022,1 hPa 0,0 l/m 2 min 0 min 272 W/m 25,1 km/h (4 Bft) 97,87 %
06.09.2015 10:20 13,7 C 17,8 C 14,4 C 80 % 0 lf 1022,2 hPa 0,0 l/m 2 min 0 min 262 W/m 29,3 km/h (5 Bft) 97,87 %
06.09.2015 10:22 13,7 C 17,2 C 13,9 C 79 % 0 lf 1022,2 hPa 0,0 l/m 2 min 0 min 304 W/m 27,2 km/h (4 Bft) 97,83 %
06.09.2015 10:24 13,7 C 17,2 C 13,9 C 79 % 0 lf 1022,2 hPa 0,0 l/m 2 min 0 min 276 W/m 20,9 km/h (4 Bft) 93,62 %
06.09.2015 10:26 13,7 C 17,2 C 14,4 C 79 % 0 lf 1022,2 hPa 0,0 l/m 2 min 0 min 312 W/m 16,7 km/h (3 Bft) 97,87 %
06.09.2015 10:28 13,8 C 17,2 C 14,4 C 80 % 0 lf 1022,2 hPa 0,0 l/m 2 min 0 min 308 W/m 23,0 km/h (4 Bft) 97,87 %
06.09.2015 10:30 13,8 C 17,8 C 14,4 C 80 % 0 lf 1022,3 hPa 0,0 l/m 2 min 0 min 284 W/m 18,8 km/h (3 Bft) 97,87 %
06.09.2015 10:32 13,8 C 17,8 C 14,4 C 79 % 0 lf 1022,3 hPa 0,0 l/m 2 min 0 min 336 W/m 18,8 km/h (3 Bft) 95,74 %
06.09.2015 10:34 13,9 C 17,8 C 14,4 C 79 % 0 lf 1022,3 hPa 0,0 l/m 2 min 0 min 324 W/m 27,2 km/h (4 Bft) 97,83 %
06.09.2015 10:36 13,9 C 18,9 C 14,4 C 79 % 0 lf 1022,3 hPa 0,0 l/m 2 min 0 min 347 W/m 20,9 km/h (4 Bft) 100,00 %
06.09.2015 10:38 14,0 C 18,9 C 14,4 C 79 % 0 lf 1022,3 hPa 0,0 l/m 2 min 0 min 362 W/m 23,0 km/h (4 Bft) 97,87 %
06.09.2015 10:40 14,1 C 20,0 C 15,6 C 79 % 0 lf 1022,4 hPa 0,0 l/m 2 min 0 min 405 W/m 18,8 km/h (3 Bft) 97,87 %
06.09.2015 10:42 14,2 C 20,6 C 15,6 C 79 % 0 lf 1022,4 hPa 0,0 l/m 2 min 0 min 432 W/m 18,8 km/h (3 Bft) 93,62 %
06.09.2015 10:44 14,2 C 21,1 C 15,6 C 80 % 0 lf 1022,4 hPa 0,0 l/m 2 min 0 min 470 W/m 27,2 km/h (4 Bft) 95,74 %
06.09.2015 10:46 14,2 C 20,6 C 16,1 C 79 % 0 lf 1022,4 hPa 0,0 l/m 2 min 0 min 496 W/m 25,1 km/h (4 Bft) 95,65 %
06.09.2015 10:48 14,3 C 20,0 C 15,6 C 79 % 0 lf 1022,5 hPa 0,0 l/m 2 min 0 min 391 W/m 27,2 km/h (4 Bft) 97,87 %
06.09.2015 10:50 14,4 C 19,4 C 15,0 C 79 % 0 lf 1022,5 hPa 0,0 l/m 2 min 0 min 386 W/m 29,3 km/h (5 Bft) 97,87 %
06.09.2015 10:52 14,5 C 18,9 C 15,0 C 78 % 0 lf 1022,5 hPa 0,0 l/m 2 min 0 min 353 W/m 23,0 km/h (4 Bft) 95,74 %
06.09.2015 10:54 14,6 C 19,4 C 15,0 C 78 % 0 lf 1022,5 hPa 0,0 l/m 2 min 0 min 393 W/m 18,8 km/h (3 Bft) 97,87 %
06.09.2015 10:56 14,6 C 18,9 C 15,6 C 78 % 0 lf 1022,5 hPa 0,0 l/m 2 min 0 min 371 W/m 16,7 km/h (3 Bft) 97,87 %
06.09.2015 10:58 14,7 C 18,9 C 15,6 C 78 % 0 lf 1022,5 hPa 0,0 l/m 2 min 0 min 428 W/m 23,0 km/h (4 Bft) 95,65 %
06.09.2015 11:00 14,7 C 17,8 C 15,0 C 78 % 0 lf 1022,5 hPa 0,0 l/m 2 min 0 min 356 W/m 16,7 km/h (3 Bft) 97,87 %
06.09.2015 11:02 14,8 C 17,8 C 15,0 C 78 % 0 lf 1022,5 hPa 0,0 l/m 0 min 0 min 270 W/m 18,8 km/h (3 Bft) 97,87 %
06.09.2015 11:04 14,8 C 17,8 C 15,0 C 78 % 0 lf 1022,5 hPa 0,0 l/m 0 min 0 min 279 W/m 12,6 km/h (3 Bft) 95,74 %
06.09.2015 11:06 14,9 C 17,2 C 15,0 C 78 % 0 lf 1022,5 hPa 0,0 l/m 0 min 0 min 286 W/m 23,0 km/h (4 Bft) 95,74 %
06.09.2015 11:08 14,9 C 17,2 C 14,4 C 77 % 0 lf 1022,5 hPa 0,0 l/m 2 min 0 min 300 W/m 29,3 km/h (5 Bft) 95,74 %
06.09.2015 11:10 14,9 C 16,7 C 14,4 C 77 % 0 lf 1022,5 hPa 0,0 l/m 0 min 0 min 244 W/m 29,3 km/h (5 Bft) 97,83 %
06.09.2015 11:12 14,8 C 16,7 C 13,9 C 76 % 0 lf 1022,5 hPa 0,0 l/m 0 min 0 min 219 W/m 25,1 km/h (4 Bft) 97,87 %
06.09.2015 11:14 14,8 C 16,1 C 13,9 C 76 % 0 lf 1022,6 hPa 0,0 l/m 0 min 0 min 206 W/m 27,2 km/h (4 Bft) 95,74 %
06.09.2015 11:16 14,7 C 16,1 C 13,9 C 76 % 0 lf 1022,6 hPa 0,0 l/m 0 min 0 min 234 W/m 20,9 km/h (4 Bft) 97,87 %
06.09.2015 11:18 14,7 C 16,7 C 13,9 C 77 % 0 lf 1022,6 hPa 0,0 l/m 2 min 0 min 313 W/m 18,8 km/h (3 Bft) 93,62 %
06.09.2015 11:20 14,7 C 17,2 C 14,4 C 77 % 0 lf 1022,6 hPa 0,0 l/m 2 min 0 min 347 W/m 18,8 km/h (3 Bft) 95,74 %
06.09.2015 11:22 14,7 C 17,8 C 14,4 C 77 % 0 lf 1022,6 hPa 0,0 l/m 2 min 0 min 337 W/m 18,8 km/h (3 Bft) 97,83 %
06.09.2015 11:24 14,7 C 17,8 C 14,4 C 77 % 0 lf 1022,8 hPa 0,0 l/m 2 min 0 min 334 W/m 16,7 km/h (3 Bft) 95,74 %
06.09.2015 11:26 14,8 C 17,8 C 15,0 C 78 % 0 lf 1022,7 hPa 0,0 l/m 0 min 0 min 277 W/m 18,8 km/h (3 Bft) 97,87 %
06.09.2015 11:28 14,8 C 17,2 C 14,4 C 78 % 0 lf 1022,8 hPa 0,0 l/m 0 min 0 min 254 W/m 27,2 km/h (4 Bft) 95,74 %
06.09.2015 11:30 14,8 C 16,7 C 14,4 C 77 % 0 lf 1022,8 hPa 0,0 l/m 0 min 0 min 258 W/m 18,8 km/h (3 Bft) 91,49 %
06.09.2015 11:32 14,8 C 17,2 C 14,4 C 77 % 0 lf 1022,7 hPa 0,0 l/m 0 min 0 min 305 W/m 12,6 km/h (3 Bft) 95,65 %
06.09.2015 11:34 14,8 C 17,2 C 14,4 C 77 % 0 lf 1022,8 hPa 0,0 l/m 2 min 0 min 328 W/m 27,2 km/h (4 Bft) 95,74 %
06.09.2015 11:36 14,8 C 17,8 C 14,4 C 77 % 0 lf 1022,7 hPa 0,0 l/m 0 min 0 min 307 W/m 23,0 km/h (4 Bft) 91,49 %
06.09.2015 11:38 14,8 C 18,3 C 15,0 C 77 % 0 lf 1022,8 hPa 0,0 l/m 2 min 0 min 358 W/m 16,7 km/h (3 Bft) 93,75 %
06.09.2015 11:40 14,9 C 19,4 C 15,6 C 77 % 0 lf 1022,8 hPa 0,0 l/m 2 min 0 min 457 W/m 16,7 km/h (3 Bft) 95,74 %
06.09.2015 11:42 14,9 C 20,6 C 16,1 C 77 % 0 lf 1022,7 hPa 0,0 l/m 2 min 0 min 483 W/m 14,6 km/h (3 Bft) 95,74 %
06.09.2015 11:44 15,0 C 20,6 C 16,1 C 77 % 0 lf 1022,8 hPa 0,0 l/m 2 min 0 min 441 W/m 18,8 km/h (3 Bft) 93,48 %
06.09.2015 11:46 15,1 C 20,6 C 16,7 C 77 % 0 lf 1022,8 hPa 0,0 l/m 2 min 0 min 407 W/m 18,8 km/h (3 Bft) 95,74 %
06.09.2015 11:48 15,2 C 20,6 C 16,1 C 77 % 0 lf 1022,7 hPa 0,0 l/m 2 min 0 min 394 W/m 14,6 km/h (3 Bft) 93,62 %
06.09.2015 11:50 15,3 C 19,4 C 16,1 C 77 % 0 lf 1022,7 hPa 0,0 l/m 2 min 0 min 352 W/m 29,3 km/h (5 Bft) 93,62 %
06.09.2015 11:52 15,3 C 19,4 C 15,6 C 77 % 0 lf 1022,7 hPa 0,0 l/m 0 min 0 min 315 W/m 18,8 km/h (3 Bft) 95,74 %
06.09.2015 11:54 15,4 C 18,9 C 15,6 C 76 % 0 lf 1022,7 hPa 0,0 l/m 2 min 0 min 331 W/m 23,0 km/h (4 Bft) 95,74 %
06.09.2015 11:56 15,4 C 18,9 C 15,6 C 76 % 0 lf 1022,8 hPa 0,0 l/m 0 min 0 min 303 W/m 18,8 km/h (3 Bft) 95,65 %
06.09.2015 11:58 15,4 C 18,3 C 15,0 C 76 % 0 lf 1022,8 hPa 0,0 l/m 0 min 0 min 238 W/m 25,1 km/h (4 Bft) 95,74 %
06.09.2015 12:00 15,4 C 18,3 C 15,0 C 76 % 0 lf 1022,9 hPa 0,0 l/m 0 min 0 min 320 W/m 20,9 km/h (4 Bft) 95,74 %
06.09.2015 12:03 15,5 C 18,9 C 15,6 C 76 % 0 lf 1022,8 hPa 0,0 l/m 0 min 0 min 279 W/m 12,6 km/h (3 Bft) 95,74 %
06.09.2015 12:04 15,6 C 18,9 C 15,6 C 76 % 0 lf 1022,8 hPa 0,0 l/m 1 min 0 min 341 W/m 14,6 km/h (3 Bft) 94,38 %
06.09.2015 12:06 15,6 C 18,3 C 15,6 C 76 % 0 lf 1022,9 hPa 0,0 l/m 0 min 0 min 293 W/m 16,7 km/h (3 Bft) 89,36 %
06.09.2015 12:08 15,6 C 18,3 C 15,6 C 75 % 0 lf 1022,8 hPa 0,0 l/m 0 min 0 min 264 W/m 14,6 km/h (3 Bft) 95,74 %
06.09.2015 12:10 15,6 C 18,3 C 15,6 C 75 % 0 lf 1022,8 hPa 0,0 l/m 0 min 0 min 244 W/m 25,1 km/h (4 Bft) 97,83 %
06.09.2015 12:12 15,6 C 17,2 C 15,0 C 74 % 0 lf 1022,9 hPa 0,0 l/m 0 min 0 min 207 W/m 25,1 km/h (4 Bft) 97,87 %
06.09.2015 12:14 15,6 C 16,7 C 14,4 C 74 % 0 lf 1022,9 hPa 0,0 l/m 0 min 0 min 148 W/m 25,1 km/h (4 Bft) 97,87 %
06.09.2015 12:16 15,6 C 16,1 C 14,4 C 74 % 0 lf 1022,9 hPa 0,0 l/m 0 min 0 min 117 W/m 25,1 km/h (4 Bft) 97,87 %
06.09.2015 12:18 15,4 C 15,6 C 13,9 C 73 % 0 lf 1022,9 hPa 0,0 l/m 0 min 0 min 138 W/m 20,9 km/h (4 Bft) 97,87 %
06.09.2015 12:20 15,4 C 15,6 C 13,9 C 74 % 0 lf 1023,0 hPa 0,0 l/m 0 min 0 min 156 W/m 25,1 km/h (4 Bft) 95,74 %
06.09.2015 12:22 15,3 C 15,6 C 13,9 C 74 % 3 lf 1023,0 hPa 0,0 l/m 0 min 2 min 118 W/m 18,8 km/h (3 Bft) 95,65 %
06.09.2015 12:24 15,3 C 15,6 C 13,3 C 74 % 0 lf 1023,0 hPa 0,0 l/m 0 min 2 min 101 W/m 23,0 km/h (4 Bft) 97,87 %
06.09.2015 12:26 15,2 C 15,0 C 13,3 C 74 % 0 lf 1023,0 hPa 0,0 l/m 0 min 0 min 113 W/m 23,0 km/h (4 Bft) 97,87 %
06.09.2015 12:28 15,1 C 15,0 C 13,3 C 74 % 0 lf 1023,0 hPa 0,0 l/m 0 min 0 min 124 W/m 27,2 km/h (4 Bft) 97,87 %
06.09.2015 12:30 15,0 C 15,0 C 13,3 C 74 % 0 lf 1023,0 hPa 0,0 l/m 0 min 0 min 134 W/m 25,1 km/h (4 Bft) 93,62 %
06.09.2015 12:32 14,9 C 15,0 C 13,3 C 75 % 0 lf 1023,0 hPa 0,0 l/m 0 min 0 min 155 W/m 18,8 km/h (3 Bft) 95,65 %
06.09.2015 12:34 14,9 C 15,6 C 13,9 C 75 % 0 lf 1022,9 hPa 0,0 l/m 0 min 0 min 182 W/m 18,8 km/h (3 Bft) 97,87 %
06.09.2015 12:36 14,9 C 15,6 C 13,9 C 75 % 0 lf 1023,0 hPa 0,0 l/m 0 min 0 min 222 W/m 18,8 km/h (3 Bft) 97,87 %
06.09.2015 12:38 14,9 C 16,7 C 14,4 C 76 % 0 lf 1023,0 hPa 0,0 l/m 0 min 0 min 265 W/m 16,7 km/h (3 Bft) 93,62 %
06.09.2015 12:40 14,8 C 16,7 C 14,4 C 76 % 0 lf 1023,0 hPa 0,0 l/m 0 min 0 min 335 W/m 14,6 km/h (3 Bft) 97,87 %
06.09.2015 12:42 14,9 C 17,8 C 15,0 C 76 % 0 lf 1023,0 hPa 0,0 l/m 2 min 0 min 414 W/m 10,5 km/h (2 Bft) 97,87 %
06.09.2015 12:44 14,9 C 18,9 C 15,6 C 76 % 0 lf 1023,0 hPa 0,0 l/m 2 min 0 min 435 W/m 16,7 km/h (3 Bft) 91,30 %
06.09.2015 12:46 15,0 C 18,9 C 16,1 C 77 % 0 lf 1023,0 hPa 0,0 l/m 2 min 0 min 364 W/m 16,7 km/h (3 Bft) 97,87 %
06.09.2015 12:48 15,1 C 18,9 C 15,6 C 77 % 0 lf 1023,1 hPa 0,0 l/m 2 min 0 min 378 W/m 20,9 km/h (4 Bft) 97,87 %
06.09.2015 12:50 15,2 C 19,4 C 16,1 C 76 % 0 lf 1023,0 hPa 0,0 l/m 2 min 0 min 415 W/m 12,6 km/h (3 Bft) 100,00 %
06.09.2015 12:52 15,3 C 19,4 C 16,1 C 77 % 0 lf 1023,0 hPa 0,0 l/m 2 min 0 min 386 W/m 20,9 km/h (4 Bft) 97,87 %
06.09.2015 12:54 15,3 C 18,9 C 16,1 C 77 % 0 lf 1023,0 hPa 0,0 l/m 2 min 0 min 402 W/m 16,7 km/h (3 Bft) 97,87 %
06.09.2015 12:56 15,4 C 18,9 C 16,1 C 77 % 0 lf 1023,0 hPa 0,0 l/m 2 min 0 min 431 W/m 29,3 km/h (5 Bft) 93,48 %
06.09.2015 12:58 15,5 C 18,9 C 16,1 C 76 % 0 lf 1023,0 hPa 0,0 l/m 2 min 0 min 425 W/m 16,7 km/h (3 Bft) 97,87 %
06.09.2015 13:00 15,6 C 19,4 C 16,1 C 76 % 0 lf 1023,0 hPa 0,0 l/m 2 min 0 min 419 W/m 23,0 km/h (4 Bft) 97,87 %
06.09.2015 13:02 15,7 C 20,0 C 16,1 C 76 % 0 lf 1023,0 hPa 0,0 l/m 2 min 0 min 432 W/m 18,8 km/h (3 Bft) 93,62 %
06.09.2015 13:04 15,8 C 20,6 C 16,7 C 76 % 0 lf 1023,0 hPa 0,0 l/m 2 min 0 min 475 W/m 14,6 km/h (3 Bft) 97,87 %
06.09.2015 13:06 15,8 C 21,1 C 16,7 C 76 % 0 lf 1023,1 hPa 0,0 l/m 2 min 0 min 505 W/m 18,8 km/h (3 Bft) 97,87 %
06.09.2015 13:08 15,9 C 21,1 C 16,7 C 75 % 0 lf 1023,0 hPa 0,0 l/m 2 min 0 min 551 W/m 23,0 km/h (4 Bft) 97,83 %
06.09.2015 13:10 16,0 C 22,2 C 17,2 C 76 % 0 lf 1023,0 hPa 0,0 l/m 2 min 0 min 584 W/m 18,8 km/h (3 Bft) 97,87 %
06.09.2015 13:12 16,1 C 22,2 C 17,2 C 76 % 0 lf 1023,0 hPa 0,0 l/m 2 min 0 min 583 W/m 18,8 km/h (3 Bft) 97,87 %
06.09.2015 13:14 16,2 C 22,8 C 17,2 C 76 % 0 lf 1023,0 hPa 0,0 l/m 2 min 0 min 583 W/m 16,7 km/h (3 Bft) 95,74 %
06.09.2015 13:16 16,3 C 21,7 C 17,2 C 75 % 0 lf 1023,0 hPa 0,0 l/m 2 min 0 min 393 W/m 23,0 km/h (4 Bft) 97,87 %
06.09.2015 13:18 16,4 C 20,0 C 16,7 C 74 % 0 lf 1023,1 hPa 0,0 l/m 0 min 0 min 309 W/m 23,0 km/h (4 Bft) 95,74 %
06.09.2015 13:20 16,4 C 18,9 C 15,6 C 72 % 0 lf 1023,1 hPa 0,0 l/m 0 min 0 min 196 W/m 31,4 km/h (5 Bft) 97,83 %
06.09.2015 13:22 16,3 C 17,8 C 15,0 C 72 % 1 lf 1023,1 hPa 0,0 l/m 0 min 2 min 134 W/m 25,1 km/h (4 Bft) 100,00 %
06.09.2015 13:24 16,2 C 16,7 C 14,4 C 72 % 0 lf 1023,2 hPa 0,0 l/m 0 min 0 min 137 W/m 29,3 km/h (5 Bft) 95,74 %
06.09.2015 13:26 16,1 C 16,7 C 14,4 C 72 % 0 lf 1023,1 hPa 0,0 l/m 0 min 0 min 159 W/m 16,7 km/h (3 Bft) 100,00 %
06.09.2015 13:28 16,1 C 16,7 C 14,4 C 73 % 0 lf 1023,1 hPa 0,0 l/m 0 min 0 min 172 W/m 23,0 km/h (4 Bft) 97,87 %
06.09.2015 13:30 15,9 C 16,7 C 14,4 C 73 % 0 lf 1023,2 hPa 0,0 l/m 0 min 0 min 178 W/m 16,7 km/h (3 Bft) 100,00 %
06.09.2015 13:32 15,9 C 16,7 C 14,4 C 73 % 0 lf 1023,2 hPa 0,0 l/m 0 min 0 min 187 W/m 12,6 km/h (3 Bft) 97,83 %
06.09.2015 13:34 15,8 C 16,7 C 15,0 C 73 % 0 lf 1023,2 hPa 0,0 l/m 0 min 0 min 204 W/m 14,6 km/h (3 Bft) 97,87 %
06.09.2015 13:36 15,8 C 16,7 C 15,0 C 72 % 0 lf 1023,1 hPa 0,0 l/m 0 min 0 min 229 W/m 16,7 km/h (3 Bft) 97,87 %
06.09.2015 13:38 15,7 C 16,7 C 15,0 C 72 % 0 lf 1023,1 hPa 0,0 l/m 0 min 0 min 252 W/m 23,0 km/h (4 Bft) 97,87 %
06.09.2015 13:40 15,7 C 17,2 C 15,0 C 72 % 0 lf 1023,2 hPa 0,0 l/m 0 min 0 min 288 W/m 16,7 km/h (3 Bft) 93,62 %
06.09.2015 13:42 15,7 C 17,8 C 15,6 C 74 % 0 lf 1023,1 hPa 0,0 l/m 0 min 0 min 318 W/m 14,6 km/h (3 Bft) 95,65 %
06.09.2015 13:44 15,7 C 17,8 C 15,6 C 74 % 0 lf 1023,2 hPa 0,0 l/m 2 min 0 min 354 W/m 14,6 km/h (3 Bft) 95,74 %
06.09.2015 13:46 15,7 C 18,3 C 16,1 C 74 % 0 lf 1023,1 hPa 0,0 l/m 2 min 0 min 383 W/m 20,9 km/h (4 Bft) 97,87 %
06.09.2015 13:48 15,7 C 18,9 C 16,1 C 74 % 0 lf 1023,2 hPa 0,0 l/m 2 min 0 min 371 W/m 16,7 km/h (3 Bft) 93,62 %
06.09.2015 13:50 15,8 C 19,4 C 16,7 C 75 % 0 lf 1023,0 hPa 0,0 l/m 2 min 0 min 379 W/m 16,7 km/h (3 Bft) 97,87 %
06.09.2015 13:52 15,9 C 19,4 C 16,7 C 75 % 0 lf 1023,1 hPa 0,0 l/m 2 min 0 min 376 W/m 8,4 km/h (2 Bft) 97,87 %
06.09.2015 13:54 15,9 C 19,4 C 16,7 C 76 % 0 lf 1023,1 hPa 0,0 l/m 2 min 0 min 371 W/m 10,5 km/h (2 Bft) 95,65 %
06.09.2015 13:56 16,0 C 19,4 C 16,7 C 76 % 0 lf 1023,2 hPa 0,0 l/m 2 min 0 min 367 W/m 20,9 km/h (4 Bft) 97,87 %
06.09.2015 13:58 16,1 C 19,4 C 16,7 C 75 % 0 lf 1023,1 hPa 0,0 l/m 2 min 0 min 363 W/m 18,8 km/h (3 Bft) 97,87 %
06.09.2015 14:00 16,1 C 19,4 C 16,7 C 75 % 0 lf 1023,2 hPa 0,0 l/m 2 min 0 min 363 W/m 16,7 km/h (3 Bft) 95,74 %
06.09.2015 14:02 16,1 C 19,4 C 16,7 C 75 % 0 lf 1023,2 hPa 0,0 l/m 2 min 0 min 369 W/m 25,1 km/h (4 Bft) 95,74 %
06.09.2015 14:04 16,2 C 19,4 C 16,7 C 74 % 0 lf 1023,2 hPa 0,0 l/m 2 min 0 min 378 W/m 20,9 km/h (4 Bft) 95,74 %
06.09.2015 14:06 16,2 C 18,9 C 16,7 C 74 % 0 lf 1023,2 hPa 0,0 l/m 2 min 0 min 385 W/m 20,9 km/h (4 Bft) 86,96 %
06.09.2015 14:08 16,2 C 18,9 C 16,7 C 74 % 0 lf 1023,2 hPa 0,0 l/m 2 min 0 min 384 W/m 23,0 km/h (4 Bft) 95,74 %
06.09.2015 14:10 16,2 C 19,4 C 16,7 C 74 % 0 lf 1023,2 hPa 0,0 l/m 2 min 0 min 395 W/m 23,0 km/h (4 Bft) 95,74 %
06.09.2015 14:12 16,2 C 20,0 C 16,7 C 74 % 0 lf 1023,2 hPa 0,0 l/m 2 min 0 min 400 W/m 10,5 km/h (2 Bft) 95,74 %
06.09.2015 14:14 16,3 C 20,0 C 17,2 C 74 % 0 lf 1023,3 hPa 0,0 l/m 2 min 0 min 402 W/m 18,8 km/h (3 Bft) 97,87 %
06.09.2015 14:16 16,3 C 20,0 C 17,2 C 73 % 0 lf 1023,2 hPa 0,0 l/m 2 min 0 min 412 W/m 18,8 km/h (3 Bft) 97,87 %
06.09.2015 14:18 16,4 C 20,6 C 17,2 C 73 % 0 lf 1023,2 hPa 0,0 l/m 2 min 0 min 429 W/m 12,6 km/h (3 Bft) 95,65 %
06.09.2015 14:20 16,5 C 21,1 C 17,8 C 73 % 0 lf 1023,2 hPa 0,0 l/m 2 min 0 min 422 W/m 16,7 km/h (3 Bft) 97,87 %
06.09.2015 14:22 16,6 C 21,1 C 17,8 C 73 % 0 lf 1023,2 hPa 0,0 l/m 2 min 0 min 485 W/m 16,7 km/h (3 Bft) 95,74 %
06.09.2015 14:24 16,6 C 21,1 C 17,2 C 72 % 0 lf 1023,2 hPa 0,0 l/m 2 min 0 min 401 W/m 18,8 km/h (3 Bft) 93,62 %
06.09.2015 14:26 16,7 C 20,0 C 17,2 C 72 % 0 lf 1023,3 hPa 0,0 l/m 0 min 0 min 272 W/m 16,7 km/h (3 Bft) 97,87 %
06.09.2015 14:28 16,7 C 19,4 C 16,7 C 72 % 0 lf 1023,3 hPa 0,0 l/m 0 min 0 min 243 W/m 23,0 km/h (4 Bft) 97,87 %
06.09.2015 14:30 16,7 C 18,9 C 16,7 C 69 % 0 lf 1023,3 hPa 0,0 l/m 0 min 0 min 222 W/m 23,0 km/h (4 Bft) 97,83 %
06.09.2015 14:32 16,7 C 18,9 C 16,1 C 68 % 0 lf 1023,3 hPa 0,0 l/m 0 min 0 min 225 W/m 25,1 km/h (4 Bft) 97,87 %
06.09.2015 14:34 16,7 C 18,3 C 16,1 C 68 % 0 lf 1023,4 hPa 0,0 l/m 0 min 0 min 255 W/m 23,0 km/h (4 Bft) 97,87 %
06.09.2015 14:36 16,7 C 18,9 C 16,1 C 68 % 0 lf 1023,3 hPa 0,0 l/m 0 min 0 min 313 W/m 20,9 km/h (4 Bft) 95,74 %
06.09.2015 14:38 16,7 C 20,6 C 16,7 C 68 % 0 lf 1023,3 hPa 0,0 l/m 2 min 0 min 482 W/m 25,1 km/h (4 Bft) 97,87 %
06.09.2015 14:40 16,7 C 20,6 C 17,2 C 69 % 0 lf 1023,3 hPa 0,0 l/m 2 min 0 min 573 W/m 27,2 km/h (4 Bft) 97,87 %
06.09.2015 14:42 16,8 C 20,6 C 17,2 C 68 % 0 lf 1023,3 hPa 0,0 l/m 2 min 0 min 443 W/m 27,2 km/h (4 Bft) 93,48 %
06.09.2015 14:44 16,9 C 20,0 C 17,2 C 67 % 0 lf 1023,3 hPa 0,0 l/m 2 min 0 min 411 W/m 27,2 km/h (4 Bft) 95,74 %
06.09.2015 14:46 16,9 C 20,0 C 17,2 C 67 % 0 lf 1023,3 hPa 0,0 l/m 2 min 0 min 379 W/m 23,0 km/h (4 Bft) 97,87 %
06.09.2015 14:48 16,9 C 19,4 C 16,7 C 67 % 0 lf 1023,4 hPa 0,0 l/m 0 min 0 min 303 W/m 20,9 km/h (4 Bft) 97,87 %
06.09.2015 14:50 16,9 C 18,9 C 16,7 C 67 % 0 lf 1023,4 hPa 0,0 l/m 0 min 0 min 224 W/m 27,2 km/h (4 Bft) 97,87 %
06.09.2015 14:52 16,9 C 18,3 C 16,1 C 67 % 0 lf 1023,4 hPa 0,0 l/m 0 min 0 min 173 W/m 25,1 km/h (4 Bft) 95,74 %
06.09.2015 14:54 16,9 C 18,3 C 16,1 C 67 % 0 lf 1023,4 hPa 0,0 l/m 0 min 0 min 132 W/m 33,5 km/h (5 Bft) 97,83 %
06.09.2015 14:56 16,9 C 17,2 C 15,0 C 67 % 0 lf 1023,4 hPa 0,0 l/m 0 min 0 min 91 W/m 29,3 km/h (5 Bft) 97,87 %
06.09.2015 14:58 16,8 C 16,7 C 15,0 C 68 % 13 lf 1023,5 hPa 0,0 l/m 0 min 2 min 74 W/m 31,4 km/h (5 Bft) 97,87 %
06.09.2015 15:00 16,7 C 16,7 C 14,4 C 69 % 9 lf 1023,5 hPa 0,0 l/m 0 min 2 min 67 W/m 27,2 km/h (4 Bft) 95,74 %
06.09.2015 15:02 16,6 C 16,1 C 14,4 C 69 % 10 lf 1023,6 hPa 0,0 l/m 0 min 2 min 75 W/m 31,4 km/h (5 Bft) 93,62 %
06.09.2015 15:04 16,4 C 15,6 C 13,9 C 69 % 2 lf 1023,6 hPa 0,0 l/m 0 min 2 min 97 W/m 35,6 km/h (5 Bft) 95,74 %
06.09.2015 15:06 16,2 C 15,6 C 13,9 C 69 % 0 lf 1023,6 hPa 0,0 l/m 0 min 0 min 130 W/m 31,4 km/h (5 Bft) 97,83 %
06.09.2015 15:08 16,1 C 15,6 C 14,4 C 69 % 0 lf 1023,7 hPa 0,0 l/m 0 min 0 min 162 W/m 29,3 km/h (5 Bft) 97,87 %
06.09.2015 15:10 16,0 C 15,6 C 14,4 C 70 % 0 lf 1023,8 hPa 0,0 l/m 0 min 0 min 188 W/m 29,3 km/h (5 Bft) 97,87 %
06.09.2015 15:12 15,9 C 16,1 C 14,4 C 70 % 0 lf 1023,7 hPa 0,0 l/m 0 min 0 min 206 W/m 23,0 km/h (4 Bft) 97,87 %
06.09.2015 15:14 15,8 C 16,1 C 14,4 C 71 % 0 lf 1023,7 hPa 0,0 l/m 0 min 0 min 207 W/m 25,1 km/h (4 Bft) 93,62 %
06.09.2015 15:16 15,8 C 16,7 C 15,0 C 71 % 0 lf 1023,8 hPa 0,0 l/m 0 min 0 min 204 W/m 25,1 km/h (4 Bft) 97,83 %
06.09.2015 15:18 15,8 C 16,7 C 15,0 C 72 % 0 lf 1023,8 hPa 0,0 l/m 0 min 0 min 206 W/m 20,9 km/h (4 Bft) 95,74 %
06.09.2015 15:20 15,7 C 16,7 C 15,0 C 72 % 0 lf 1023,8 hPa 0,0 l/m 0 min 0 min 209 W/m 20,9 km/h (4 Bft) 91,49 %
06.09.2015 15:22 15,7 C 16,7 C 15,0 C 73 % 0 lf 1023,8 hPa 0,0 l/m 0 min 0 min 210 W/m 14,6 km/h (3 Bft) 95,74 %
06.09.2015 15:24 15,7 C 16,7 C 15,0 C 73 % 0 lf 1023,8 hPa 0,0 l/m 0 min 0 min 208 W/m 16,7 km/h (3 Bft) 93,62 %
06.09.2015 15:26 15,7 C 16,7 C 15,0 C 74 % 0 lf 1023,9 hPa 0,0 l/m 0 min 0 min 209 W/m 10,5 km/h (2 Bft) 93,62 %
06.09.2015 15:28 15,7 C 16,7 C 15,6 C 74 % 0 lf 1023,8 hPa 0,0 l/m 0 min 0 min 220 W/m 20,9 km/h (4 Bft) 95,65 %
06.09.2015 15:30 15,7 C 17,2 C 15,6 C 74 % 0 lf 1023,8 hPa 0,0 l/m 0 min 0 min 234 W/m 16,7 km/h (3 Bft) 95,74 %
06.09.2015 15:32 15,7 C 17,2 C 15,6 C 73 % 0 lf 1023,8 hPa 0,0 l/m 0 min 0 min 247 W/m 16,7 km/h (3 Bft) 95,74 %
06.09.2015 15:34 15,7 C 17,2 C 15,6 C 73 % 0 lf 1023,7 hPa 0,0 l/m 0 min 0 min 258 W/m 16,7 km/h (3 Bft) 91,49 %
06.09.2015 15:36 15,7 C 17,8 C 15,6 C 73 % 0 lf 1023,8 hPa 0,0 l/m 0 min 0 min 259 W/m 18,8 km/h (3 Bft) 95,74 %
06.09.2015 15:38 15,7 C 17,8 C 15,6 C 72 % 0 lf 1023,8 hPa 0,0 l/m 0 min 0 min 261 W/m 16,7 km/h (3 Bft) 91,49 %
06.09.2015 15:40 15,7 C 18,3 C 16,1 C 73 % 0 lf 1023,8 hPa 0,0 l/m 0 min 0 min 274 W/m 16,7 km/h (3 Bft) 93,48 %
06.09.2015 15:42 15,8 C 18,3 C 16,1 C 72 % 0 lf 1023,8 hPa 0,0 l/m 2 min 0 min 309 W/m 16,7 km/h (3 Bft) 95,74 %
06.09.2015 15:44 15,8 C 18,9 C 16,1 C 73 % 0 lf 1023,8 hPa 0,0 l/m 2 min 0 min 326 W/m 12,6 km/h (3 Bft) 93,62 %
06.09.2015 15:46 15,9 C 19,4 C 16,1 C 72 % 0 lf 1023,8 hPa 0,0 l/m 2 min 0 min 375 W/m 20,9 km/h (4 Bft) 95,74 %
06.09.2015 15:48 15,9 C 19,4 C 16,7 C 72 % 0 lf 1023,9 hPa 0,0 l/m 2 min 0 min 396 W/m 23,0 km/h (4 Bft) 93,62 %
06.09.2015 15:50 16,0 C 20,0 C 16,7 C 71 % 0 lf 1023,9 hPa 0,0 l/m 2 min 0 min 360 W/m 25,1 km/h (4 Bft) 93,62 %
06.09.2015 15:52 16,1 C 19,4 C 16,7 C 71 % 0 lf 1023,9 hPa 0,0 l/m 2 min 0 min 315 W/m 23,0 km/h (4 Bft) 95,65 %
06.09.2015 15:54 16,2 C 20,0 C 16,7 C 71 % 0 lf 1023,9 hPa 0,0 l/m 2 min 0 min 314 W/m 20,9 km/h (4 Bft) 93,62 %
06.09.2015 15:56 16,2 C 19,4 C 16,7 C 70 % 0 lf 1023,8 hPa 0,0 l/m 2 min 0 min 332 W/m 23,0 km/h (4 Bft) 97,87 %
06.09.2015 15:58 16,3 C 19,4 C 16,7 C 70 % 0 lf 1023,8 hPa 0,0 l/m 0 min 0 min 287 W/m 23,0 km/h (4 Bft) 95,74 %
06.09.2015 16:00 16,3 C 19,4 C 16,7 C 70 % 0 lf 1023,9 hPa 0,0 l/m 2 min 0 min 313 W/m 14,6 km/h (3 Bft) 93,62 %
06.09.2015 16:02 16,4 C 20,0 C 16,7 C 70 % 0 lf 1023,9 hPa 0,0 l/m 2 min 0 min 373 W/m 20,9 km/h (4 Bft) 95,74 %
06.09.2015 16:04 16,4 C 20,0 C 16,7 C 70 % 0 lf 1023,9 hPa 0,0 l/m 2 min 0 min 363 W/m 23,0 km/h (4 Bft) 93,48 %
06.09.2015 16:06 16,5 C 20,0 C 17,2 C 69 % 0 lf 1023,8 hPa 0,0 l/m 2 min 0 min 372 W/m 23,0 km/h (4 Bft) 97,87 %
06.09.2015 16:08 16,6 C 20,6 C 17,2 C 70 % 0 lf 1023,9 hPa 0,0 l/m 2 min 0 min 432 W/m 23,0 km/h (4 Bft) 97,87 %
06.09.2015 16:10 16,7 C 20,6 C 16,7 C 70 % 0 lf 1023,8 hPa 0,0 l/m 2 min 0 min 366 W/m 27,2 km/h (4 Bft) 95,74 %
06.09.2015 16:12 16,7 C 20,6 C 16,7 C 70 % 0 lf 1023,8 hPa 0,0 l/m 2 min 0 min 289 W/m 20,9 km/h (4 Bft) 97,87 %
06.09.2015 16:14 16,8 C 20,0 C 16,7 C 70 % 0 lf 1023,8 hPa 0,0 l/m 0 min 0 min 245 W/m 18,8 km/h (3 Bft) 95,74 %
06.09.2015 16:16 16,8 C 18,9 C 16,1 C 69 % 0 lf 1023,9 hPa 0,0 l/m 0 min 0 min 178 W/m 23,0 km/h (4 Bft) 95,65 %
06.09.2015 16:18 16,8 C 18,9 C 16,1 C 69 % 0 lf 1023,9 hPa 0,0 l/m 0 min 0 min 174 W/m 14,6 km/h (3 Bft) 97,87 %
06.09.2015 16:20 16,8 C 18,3 C 16,1 C 69 % 0 lf 1023,9 hPa 0,0 l/m 0 min 0 min 223 W/m 29,3 km/h (5 Bft) 95,74 %
06.09.2015 16:22 16,8 C 18,3 C 16,1 C 69 % 0 lf 1023,8 hPa 0,0 l/m 0 min 0 min 238 W/m 25,1 km/h (4 Bft) 100,00 %
06.09.2015 16:24 16,8 C 18,3 C 16,1 C 69 % 0 lf 1023,8 hPa 0,0 l/m 0 min 0 min 244 W/m 20,9 km/h (4 Bft) 100,00 %
06.09.2015 16:26 16,8 C 18,9 C 16,7 C 69 % 0 lf 1023,8 hPa 0,0 l/m 2 min 0 min 286 W/m 20,9 km/h (4 Bft) 97,87 %
06.09.2015 16:28 16,8 C 19,4 C 16,7 C 70 % 0 lf 1023,8 hPa 0,0 l/m 2 min 0 min 391 W/m 18,8 km/h (3 Bft) 100,00 %
06.09.2015 16:30 16,8 C 20,6 C 16,7 C 67 % 0 lf 1023,8 hPa 0,0 l/m 2 min 0 min 462 W/m 27,2 km/h (4 Bft) 97,87 %
06.09.2015 16:32 16,8 C 20,0 C 16,7 C 67 % 0 lf 1023,7 hPa 0,0 l/m 2 min 0 min 326 W/m 25,1 km/h (4 Bft) 100,00 %
06.09.2015 16:34 16,9 C 20,0 C 16,7 C 67 % 0 lf 1023,8 hPa 0,0 l/m 2 min 0 min 292 W/m 18,8 km/h (3 Bft) 100,00 %
06.09.2015 16:36 16,9 C 19,4 C 16,7 C 66 % 0 lf 1023,8 hPa 0,0 l/m 2 min 0 min 286 W/m 23,0 km/h (4 Bft) 100,00 %
06.09.2015 16:38 16,9 C 19,4 C 16,7 C 67 % 0 lf 1023,8 hPa 0,0 l/m 2 min 0 min 287 W/m 27,2 km/h (4 Bft) 97,87 %
06.09.2015 16:40 16,9 C 19,4 C 16,7 C 67 % 0 lf 1023,8 hPa 0,0 l/m 2 min 0 min 281 W/m 23,0 km/h (4 Bft) 97,83 %
06.09.2015 16:42 16,9 C 18,9 C 16,7 C 66 % 0 lf 1023,8 hPa 0,0 l/m 2 min 0 min 251 W/m 25,1 km/h (4 Bft) 100,00 %
06.09.2015 16:44 16,9 C 18,9 C 16,7 C 66 % 0 lf 1023,8 hPa 0,0 l/m 0 min 0 min 231 W/m 16,7 km/h (3 Bft) 100,00 %
06.09.2015 16:46 16,9 C 18,3 C 16,1 C 66 % 0 lf 1023,8 hPa 0,0 l/m 0 min 0 min 208 W/m 35,6 km/h (5 Bft) 97,87 %
06.09.2015 16:48 16,8 C 17,8 C 15,6 C 66 % 0 lf 1023,8 hPa 0,0 l/m 0 min 0 min 195 W/m 29,3 km/h (5 Bft) 100,00 %
06.09.2015 16:50 16,8 C 17,8 C 15,6 C 65 % 0 lf 1023,8 hPa 0,0 l/m 0 min 0 min 189 W/m 25,1 km/h (4 Bft) 97,83 %
06.09.2015 16:52 16,8 C 17,2 C 15,6 C 66 % 0 lf 1023,9 hPa 0,0 l/m 0 min 0 min 184 W/m 16,7 km/h (3 Bft) 100,00 %
06.09.2015 16:54 16,7 C 17,2 C 15,6 C 66 % 0 lf 1023,9 hPa 0,0 l/m 0 min 0 min 179 W/m 20,9 km/h (4 Bft) 97,87 %
06.09.2015 16:56 16,7 C 17,2 C 15,6 C 66 % 0 lf 1023,9 hPa 0,0 l/m 0 min 0 min 172 W/m 23,0 km/h (4 Bft) 97,87 %
06.09.2015 16:58 16,6 C 17,2 C 15,6 C 67 % 0 lf 1023,9 hPa 0,0 l/m 0 min 0 min 168 W/m 23,0 km/h (4 Bft) 97,87 %
06.09.2015 17:00 16,6 C 17,2 C 15,6 C 67 % 0 lf 1023,9 hPa 0,0 l/m 0 min 0 min 160 W/m 18,8 km/h (3 Bft) 100,00 %
06.09.2015 17:02 16,6 C 17,2 C 15,6 C 67 % 0 lf 1024,0 hPa 0,0 l/m 0 min 0 min 159 W/m 23,0 km/h (4 Bft) 100,00 %
06.09.2015 17:04 16,5 C 16,7 C 15,6 C 67 % 0 lf 1024,0 hPa 0,0 l/m 0 min 0 min 172 W/m 27,2 km/h (4 Bft) 95,74 %
06.09.2015 17:06 16,4 C 16,7 C 15,6 C 67 % 0 lf 1024,0 hPa 0,0 l/m 0 min 0 min 189 W/m 29,3 km/h (5 Bft) 100,00 %
06.09.2015 17:08 16,4 C 17,2 C 15,6 C 67 % 0 lf 1024,0 hPa 0,0 l/m 0 min 0 min 196 W/m 12,6 km/h (3 Bft) 100,00 %
06.09.2015 17:10 16,4 C 17,2 C 15,6 C 67 % 0 lf 1024,0 hPa 0,0 l/m 0 min 0 min 212 W/m 14,6 km/h (3 Bft) 97,87 %
06.09.2015 17:12 16,4 C 17,8 C 15,6 C 67 % 0 lf 1024,1 hPa 0,0 l/m 0 min 0 min 212 W/m 20,9 km/h (4 Bft) 100,00 %
06.09.2015 17:14 16,3 C 17,8 C 15,6 C 67 % 0 lf 1024,0 hPa 0,0 l/m 0 min 0 min 202 W/m 18,8 km/h (3 Bft) 100,00 %
06.09.2015 17:16 16,3 C 17,8 C 15,6 C 67 % 0 lf 1024,0 hPa 0,0 l/m 2 min 0 min 218 W/m 16,7 km/h (3 Bft) 95,74 %
06.09.2015 17:18 16,3 C 18,3 C 15,6 C 67 % 0 lf 1024,1 hPa 0,0 l/m 2 min 0 min 225 W/m 27,2 km/h (4 Bft) 95,74 %
06.09.2015 17:20 16,3 C 19,4 C 15,6 C 67 % 0 lf 1024,0 hPa 0,0 l/m 2 min 0 min 355 W/m 18,8 km/h (3 Bft) 100,00 %
06.09.2015 17:22 16,3 C 20,0 C 15,6 C 67 % 0 lf 1024,0 hPa 0,0 l/m 2 min 0 min 475 W/m 23,0 km/h (4 Bft) 100,00 %
06.09.2015 17:24 16,4 C 19,4 C 15,6 C 67 % 0 lf 1024,0 hPa 0,0 l/m 2 min 0 min 433 W/m 18,8 km/h (3 Bft) 97,87 %
06.09.2015 17:26 16,4 C 20,0 C 15,6 C 67 % 0 lf 1024,0 hPa 0,0 l/m 2 min 0 min 361 W/m 16,7 km/h (3 Bft) 97,83 %
06.09.2015 17:28 16,4 C 19,4 C 15,6 C 66 % 0 lf 1024,0 hPa 0,0 l/m 2 min 0 min 234 W/m 18,8 km/h (3 Bft) 95,74 %
06.09.2015 17:30 16,4 C 20,0 C 15,0 C 66 % 0 lf 1024,0 hPa 0,0 l/m 2 min 0 min 281 W/m 20,9 km/h (4 Bft) 95,74 %
06.09.2015 17:32 16,4 C 20,6 C 15,0 C 66 % 0 lf 1024,0 hPa 0,0 l/m 2 min 0 min 337 W/m 18,8 km/h (3 Bft) 97,87 %
06.09.2015 17:34 16,4 C 20,6 C 15,0 C 66 % 0 lf 1023,9 hPa 0,0 l/m 2 min 0 min 327 W/m 18,8 km/h (3 Bft) 97,87 %
06.09.2015 17:36 16,4 C 20,0 C 15,0 C 66 % 0 lf 1023,9 hPa 0,0 l/m 2 min 0 min 355 W/m 31,4 km/h (5 Bft) 97,87 %
06.09.2015 17:38 16,4 C 20,0 C 15,0 C 66 % 0 lf 1024,0 hPa 0,0 l/m 2 min 0 min 349 W/m 18,8 km/h (3 Bft) 97,83 %
06.09.2015 17:40 16,5 C 20,0 C 15,0 C 66 % 0 lf 1024,0 hPa 0,0 l/m 2 min 0 min 358 W/m 18,8 km/h (3 Bft) 97,87 %
06.09.2015 17:42 16,5 C 20,6 C 15,0 C 67 % 0 lf 1024,1 hPa 0,0 l/m 2 min 0 min 365 W/m 18,8 km/h (3 Bft) 97,87 %
06.09.2015 17:44 16,5 C 20,0 C 15,0 C 67 % 0 lf 1024,1 hPa 0,0 l/m 2 min 0 min 369 W/m 29,3 km/h (5 Bft) 97,87 %
06.09.2015 17:46 16,6 C 18,9 C 15,0 C 67 % 0 lf 1024,1 hPa 0,0 l/m 2 min 0 min 343 W/m 23,0 km/h (4 Bft) 97,87 %
06.09.2015 17:48 16,6 C 18,3 C 15,0 C 67 % 0 lf 1024,1 hPa 0,0 l/m 2 min 0 min 186 W/m 20,9 km/h (4 Bft) 93,62 %
06.09.2015 17:50 16,6 C 17,8 C 15,0 C 67 % 0 lf 1024,1 hPa 0,0 l/m 0 min 0 min 163 W/m 20,9 km/h (4 Bft) 97,83 %
06.09.2015 17:52 16,6 C 17,8 C 15,0 C 68 % 0 lf 1024,1 hPa 0,0 l/m 0 min 0 min 149 W/m 18,8 km/h (3 Bft) 93,62 %
06.09.2015 17:54 16,6 C 17,2 C 15,0 C 69 % 0 lf 1024,2 hPa 0,0 l/m 0 min 0 min 148 W/m 25,1 km/h (4 Bft) 93,62 %
06.09.2015 17:56 16,5 C 17,2 C 15,0 C 68 % 0 lf 1024,1 hPa 0,0 l/m 0 min 0 min 139 W/m 25,1 km/h (4 Bft) 93,62 %
06.09.2015 17:58 16,4 C 16,7 C 15,0 C 68 % 0 lf 1024,1 hPa 0,0 l/m 0 min 0 min 129 W/m 25,1 km/h (4 Bft) 93,62 %
06.09.2015 18:00 16,4 C 16,7 C 14,4 C 69 % 0 lf 1024,2 hPa 0,0 l/m 0 min 0 min 122 W/m 25,1 km/h (4 Bft) 93,62 %
06.09.2015 18:02 16,3 C 16,7 C 14,4 C 69 % 0 lf 1024,2 hPa 0,0 l/m 0 min 0 min 119 W/m 25,1 km/h (4 Bft) 91,30 %
06.09.2015 18:05 16,2 C 16,7 C 14,4 C 69 % 0 lf 1024,1 hPa 0,0 l/m 0 min 0 min 111 W/m 18,8 km/h (3 Bft) 92,11 %
06.09.2015 18:06 16,2 C 16,7 C 14,4 C 69 % 0 lf 1024,1 hPa 0,0 l/m 0 min 0 min 100 W/m 20,9 km/h (4 Bft) 91,67 %
06.09.2015 18:08 16,1 C 16,1 C 14,4 C 69 % 0 lf 1024,2 hPa 0,0 l/m 0 min 0 min 95 W/m 20,9 km/h (4 Bft) 93,48 %
06.09.2015 18:10 16,1 C 16,1 C 14,4 C 69 % 0 lf 1024,2 hPa 0,0 l/m 0 min 0 min 87 W/m 20,9 km/h (4 Bft) 93,62 %
06.09.2015 18:12 16,0 C 16,1 C 14,4 C 69 % 0 lf 1024,2 hPa 0,0 l/m 0 min 0 min 78 W/m 23,0 km/h (4 Bft) 91,49 %
06.09.2015 18:14 15,9 C 16,1 C 13,9 C 70 % 0 lf 1024,2 hPa 0,0 l/m 0 min 0 min 71 W/m 14,6 km/h (3 Bft) 93,62 %
06.09.2015 18:16 15,9 C 15,6 C 13,9 C 70 % 2 lf 1024,3 hPa 0,0 l/m 0 min 0 min 66 W/m 18,8 km/h (3 Bft) 93,62 %
06.09.2015 18:18 15,8 C 15,6 C 13,9 C 71 % 0 lf 1024,2 hPa 0,0 l/m 0 min 2 min 67 W/m 23,0 km/h (4 Bft) 91,49 %
06.09.2015 18:20 15,8 C 15,6 C 13,9 C 71 % 0 lf 1024,3 hPa 0,0 l/m 0 min 0 min 74 W/m 27,2 km/h (4 Bft) 93,48 %
06.09.2015 18:22 15,7 C 15,6 C 13,9 C 72 % 0 lf 1024,4 hPa 0,0 l/m 0 min 0 min 78 W/m 23,0 km/h (4 Bft) 91,49 %
06.09.2015 18:24 15,7 C 15,6 C 13,9 C 72 % 0 lf 1024,3 hPa 0,0 l/m 0 min 0 min 86 W/m 25,1 km/h (4 Bft) 93,62 %
06.09.2015 18:26 15,6 C 15,6 C 13,9 C 72 % 0 lf 1024,3 hPa 0,0 l/m 0 min 0 min 101 W/m 27,2 km/h (4 Bft) 95,74 %
06.09.2015 18:28 15,6 C 15,6 C 13,9 C 72 % 0 lf 1024,3 hPa 0,0 l/m 0 min 0 min 101 W/m 20,9 km/h (4 Bft) 89,36 %
06.09.2015 18:30 15,5 C 15,6 C 13,9 C 72 % 0 lf 1024,3 hPa 0,0 l/m 0 min 0 min 98 W/m 33,5 km/h (5 Bft) 93,48 %
06.09.2015 18:32 15,4 C 15,6 C 13,9 C 73 % 0 lf 1024,3 hPa 0,0 l/m 0 min 0 min 108 W/m 25,1 km/h (4 Bft) 95,74 %
06.09.2015 18:34 15,4 C 15,6 C 13,9 C 73 % 0 lf 1024,3 hPa 0,0 l/m 2 min 0 min 121 W/m 16,7 km/h (3 Bft) 93,62 %
06.09.2015 18:36 15,4 C 15,6 C 13,9 C 73 % 0 lf 1024,4 hPa 0,0 l/m 2 min 0 min 188 W/m 29,3 km/h (5 Bft) 93,62 %
06.09.2015 18:38 15,3 C 15,6 C 13,9 C 73 % 0 lf 1024,4 hPa 0,0 l/m 2 min 0 min 150 W/m 31,4 km/h (5 Bft) 91,49 %
06.09.2015 18:40 15,3 C 15,6 C 13,9 C 73 % 0 lf 1024,4 hPa 0,0 l/m 2 min 0 min 126 W/m 31,4 km/h (5 Bft) 93,62 %
06.09.2015 18:42 15,2 C 15,6 C 13,9 C 73 % 0 lf 1024,4 hPa 0,0 l/m 2 min 0 min 162 W/m 23,0 km/h (4 Bft) 95,65 %
06.09.2015 18:44 15,2 C 15,6 C 13,9 C 73 % 0 lf 1024,4 hPa 0,0 l/m 2 min 0 min 164 W/m 20,9 km/h (4 Bft) 95,74 %
06.09.2015 18:46 15,2 C 15,6 C 13,9 C 74 % 0 lf 1024,5 hPa 0,0 l/m 2 min 0 min 110 W/m 29,3 km/h (5 Bft) 95,74 %
06.09.2015 18:48 15,1 C 15,6 C 13,9 C 73 % 0 lf 1024,6 hPa 0,0 l/m 0 min 0 min 94 W/m 35,6 km/h (5 Bft) 95,74 %
06.09.2015 18:50 15,1 C 15,6 C 13,9 C 72 % 0 lf 1024,6 hPa 0,0 l/m 0 min 0 min 89 W/m 23,0 km/h (4 Bft) 97,87 %
06.09.2015 18:52 15,0 C 15,0 C 13,9 C 72 % 0 lf 1024,6 hPa 0,0 l/m 0 min 0 min 83 W/m 18,8 km/h (3 Bft) 95,74 %
06.09.2015 18:54 15,0 C 15,0 C 13,3 C 72 % 0 lf 1024,5 hPa 0,0 l/m 0 min 0 min 78 W/m 18,8 km/h (3 Bft) 95,65 %
06.09.2015 18:56 14,9 C 15,0 C 13,3 C 72 % 0 lf 1024,6 hPa 0,0 l/m 0 min 0 min 71 W/m 18,8 km/h (3 Bft) 95,74 %
06.09.2015 18:58 14,9 C 15,0 C 13,3 C 72 % 0 lf 1024,6 hPa 0,0 l/m 0 min 0 min 74 W/m 18,8 km/h (3 Bft) 97,87 %
06.09.2015 19:00 14,9 C 15,0 C 13,3 C 72 % 0 lf 1024,6 hPa 0,0 l/m 0 min 0 min 76 W/m 12,6 km/h (3 Bft) 97,87 %
06.09.2015 19:02 14,9 C 15,0 C 13,3 C 73 % 0 lf 1024,6 hPa 0,0 l/m 0 min 0 min 73 W/m 14,6 km/h (3 Bft) 97,87 %
06.09.2015 19:04 14,9 C 15,0 C 13,3 C 73 % 0 lf 1024,5 hPa 0,0 l/m 0 min 0 min 72 W/m 14,6 km/h (3 Bft) 97,87 %
06.09.2015 19:06 14,8 C 15,0 C 13,3 C 73 % 0 lf 1024,6 hPa 0,0 l/m 0 min 0 min 70 W/m 16,7 km/h (3 Bft) 91,30 %
06.09.2015 19:08 14,8 C 15,0 C 13,3 C 73 % 0 lf 1024,5 hPa 0,0 l/m 0 min 0 min 67 W/m 16,7 km/h (3 Bft) 100,00 %
06.09.2015 19:10 14,8 C 15,0 C 13,3 C 73 % 0 lf 1024,6 hPa 0,0 l/m 0 min 0 min 67 W/m 16,7 km/h (3 Bft) 100,00 %
06.09.2015 19:12 14,8 C 15,0 C 13,3 C 74 % 0 lf 1024,6 hPa 0,0 l/m 0 min 0 min 67 W/m 16,7 km/h (3 Bft) 100,00 %
06.09.2015 19:14 14,8 C 15,0 C 13,3 C 74 % 0 lf 1024,6 hPa 0,0 l/m 2 min 0 min 67 W/m 10,5 km/h (2 Bft) 100,00 %
06.09.2015 19:16 14,7 C 15,0 C 13,3 C 74 % 0 lf 1024,6 hPa 0,0 l/m 0 min 0 min 64 W/m 14,6 km/h (3 Bft) 95,74 %
06.09.2015 19:18 14,7 C 14,4 C 13,3 C 74 % 0 lf 1024,6 hPa 0,0 l/m 0 min 0 min 55 W/m 16,7 km/h (3 Bft) 97,83 %
06.09.2015 19:20 14,7 C 14,4 C 13,3 C 74 % 0 lf 1024,6 hPa 0,0 l/m 0 min 0 min 49 W/m 12,6 km/h (3 Bft) 100,00 %
06.09.2015 19:22 14,7 C 14,4 C 12,8 C 75 % 0 lf 1024,6 hPa 0,0 l/m 0 min 0 min 43 W/m 20,9 km/h (4 Bft) 97,87 %
06.09.2015 19:24 14,6 C 14,4 C 12,8 C 74 % 0 lf 1024,6 hPa 0,0 l/m 0 min 0 min 42 W/m 16,7 km/h (3 Bft) 97,87 %
06.09.2015 19:26 14,6 C 14,4 C 12,8 C 75 % 0 lf 1024,6 hPa 0,0 l/m 0 min 0 min 40 W/m 12,6 km/h (3 Bft) 100,00 %
06.09.2015 19:28 14,6 C 14,4 C 12,8 C 75 % 0 lf 1024,6 hPa 0,0 l/m 0 min 0 min 36 W/m 23,0 km/h (4 Bft) 97,87 %
06.09.2015 19:30 14,5 C 13,9 C 12,8 C 74 % 0 lf 1024,6 hPa 0,0 l/m 0 min 0 min 30 W/m 16,7 km/h (3 Bft) 100,00 %
06.09.2015 19:32 14,5 C 13,9 C 12,2 C 74 % 0 lf 1024,6 hPa 0,0 l/m 0 min 0 min 25 W/m 16,7 km/h (3 Bft) 100,00 %
06.09.2015 19:34 14,4 C 13,9 C 12,2 C 74 % 0 lf 1024,6 hPa 0,0 l/m 0 min 0 min 23 W/m 12,6 km/h (3 Bft) 100,00 %
06.09.2015 19:36 14,4 C 13,9 C 12,2 C 74 % 0 lf 1024,6 hPa 0,0 l/m 0 min 0 min 23 W/m 18,8 km/h (3 Bft) 100,00 %
06.09.2015 19:38 14,3 C 13,9 C 12,2 C 74 % 0 lf 1024,5 hPa 0,0 l/m 0 min 0 min 25 W/m 16,7 km/h (3 Bft) 97,87 %
06.09.2015 19:40 14,3 C 13,9 C 12,2 C 75 % 0 lf 1024,5 hPa 0,0 l/m 0 min 0 min 24 W/m 10,5 km/h (2 Bft) 97,87 %
06.09.2015 19:42 14,2 C 13,9 C 12,2 C 75 % 0 lf 1024,6 hPa 0,0 l/m 0 min 0 min 22 W/m 12,6 km/h (3 Bft) 100,00 %
06.09.2015 19:44 14,2 C 13,9 C 12,2 C 75 % 0 lf 1024,6 hPa 0,0 l/m 0 min 0 min 19 W/m 14,6 km/h (3 Bft) 93,62 %
06.09.2015 19:46 14,2 C 13,9 C 12,2 C 75 % 0 lf 1024,6 hPa 0,0 l/m 0 min 0 min 14 W/m 16,7 km/h (3 Bft) 100,00 %
06.09.2015 19:48 14,2 C 13,9 C 12,2 C 76 % 0 lf 1024,6 hPa 0,0 l/m 0 min 0 min 11 W/m 12,6 km/h (3 Bft) 100,00 %
06.09.2015 19:50 14,2 C 13,9 C 12,2 C 76 % 0 lf 1024,6 hPa 0,0 l/m 0 min 0 min 9 W/m 16,7 km/h (3 Bft) 95,74 %
06.09.2015 19:52 14,2 C 13,9 C 12,2 C 76 % 0 lf 1024,6 hPa 0,0 l/m 0 min 0 min 8 W/m 12,6 km/h (3 Bft) 100,00 %
06.09.2015 19:54 14,2 C 13,9 C 12,2 C 76 % 0 lf 1024,6 hPa 0,0 l/m 0 min 0 min 7 W/m 8,4 km/h (2 Bft) 97,87 %
06.09.2015 19:56 14,1 C 13,9 C 12,2 C 77 % 0 lf 1024,7 hPa 0,0 l/m 0 min 0 min 7 W/m 8,4 km/h (2 Bft) 97,87 %
06.09.2015 19:58 14,1 C 13,9 C 12,2 C 77 % 0 lf 1024,7 hPa 0,0 l/m 0 min 0 min 5 W/m 10,5 km/h (2 Bft) 95,74 %
06.09.2015 20:00 14,0 C 13,9 C 12,2 C 77 % 0 lf 1024,7 hPa 0,0 l/m 0 min 0 min 5 W/m 12,6 km/h (3 Bft) 97,87 %
06.09.2015 20:02 14,0 C 13,9 C 12,2 C 77 % 0 lf 1024,7 hPa 0,0 l/m 0 min 0 min 5 W/m 12,6 km/h (3 Bft) 91,49 %
06.09.2015 20:04 13,9 C 13,9 C 12,2 C 77 % 0 lf 1024,7 hPa 0,0 l/m 0 min 0 min 5 W/m 10,5 km/h (2 Bft) 97,83 %
06.09.2015 20:06 13,9 C 13,3 C 12,2 C 78 % 0 lf 1024,7 hPa 0,0 l/m 0 min 0 min 5 W/m 14,6 km/h (3 Bft) 97,87 %
06.09.2015 20:08 13,9 C 13,3 C 12,2 C 78 % 0 lf 1024,8 hPa 0,0 l/m 0 min 0 min 5 W/m 12,6 km/h (3 Bft) 95,74 %
06.09.2015 20:10 13,8 C 13,3 C 12,2 C 78 % 0 lf 1024,7 hPa 0,0 l/m 0 min 0 min 5 W/m 8,4 km/h (2 Bft) 97,87 %
06.09.2015 20:12 13,8 C 13,3 C 12,2 C 78 % 0 lf 1024,7 hPa 0,0 l/m 0 min 0 min 4 W/m 14,6 km/h (3 Bft) 93,62 %
06.09.2015 20:14 13,8 C 13,3 C 12,2 C 78 % 0 lf 1024,8 hPa 0,0 l/m 0 min 0 min 0 W/m 12,6 km/h (3 Bft) 95,74 %
06.09.2015 20:16 13,8 C 13,3 C 12,2 C 78 % 0 lf 1024,8 hPa 0,0 l/m 0 min 0 min 0 W/m 10,5 km/h (2 Bft) 97,83 %
06.09.2015 20:18 13,7 C 13,3 C 12,2 C 78 % 0 lf 1024,9 hPa 0,0 l/m 0 min 0 min 0 W/m 8,4 km/h (2 Bft) 95,74 %
06.09.2015 20:20 13,7 C 13,3 C 12,2 C 78 % 0 lf 1024,8 hPa 0,0 l/m 0 min 0 min 0 W/m 10,5 km/h (2 Bft) 93,62 %
06.09.2015 20:22 13,7 C 13,3 C 12,2 C 78 % 0 lf 1024,9 hPa 0,0 l/m 0 min 0 min 0 W/m 8,4 km/h (2 Bft) 100,00 %
06.09.2015 20:24 13,7 C 13,3 C 12,2 C 79 % 0 lf 1024,9 hPa 0,0 l/m 0 min 0 min 0 W/m 8,4 km/h (2 Bft) 97,87 %
06.09.2015 20:26 13,7 C 13,3 C 12,2 C 79 % 0 lf 1024,9 hPa 0,0 l/m 0 min 0 min 0 W/m 8,4 km/h (2 Bft) 97,87 %
06.09.2015 20:28 13,7 C 13,3 C 12,2 C 79 % 0 lf 1024,9 hPa 0,0 l/m 0 min 0 min 0 W/m 8,4 km/h (2 Bft) 100,00 %
06.09.2015 20:30 13,7 C 13,3 C 12,2 C 79 % 0 lf 1025,0 hPa 0,0 l/m 0 min 0 min 0 W/m 10,5 km/h (2 Bft) 100,00 %
06.09.2015 20:32 13,7 C 13,3 C 12,2 C 79 % 0 lf 1025,0 hPa 0,0 l/m 0 min 0 min 0 W/m 10,5 km/h (2 Bft) 100,00 %
06.09.2015 20:34 13,6 C 13,3 C 12,2 C 79 % 0 lf 1025,0 hPa 0,0 l/m 0 min 0 min 0 W/m 10,5 km/h (2 Bft) 100,00 %
06.09.2015 20:36 13,6 C 13,3 C 12,2 C 80 % 0 lf 1025,0 hPa 0,0 l/m 0 min 0 min 0 W/m 8,4 km/h (2 Bft) 97,87 %
06.09.2015 20:38 13,6 C 13,3 C 11,7 C 80 % 0 lf 1025,0 hPa 0,0 l/m 0 min 0 min 0 W/m 8,4 km/h (2 Bft) 97,87 %
06.09.2015 20:40 13,6 C 12,8 C 11,7 C 80 % 0 lf 1025,0 hPa 0,0 l/m 0 min 0 min 0 W/m 8,4 km/h (2 Bft) 100,00 %
06.09.2015 20:42 13,6 C 12,8 C 11,7 C 80 % 0 lf 1025,1 hPa 0,0 l/m 0 min 0 min 0 W/m 8,4 km/h (2 Bft) 100,00 %
06.09.2015 20:44 13,5 C 12,8 C 11,7 C 80 % 0 lf 1025,1 hPa 0,0 l/m 0 min 0 min 0 W/m 6,3 km/h (2 Bft) 97,87 %
06.09.2015 20:46 13,5 C 12,8 C 11,7 C 80 % 0 lf 1025,1 hPa 0,0 l/m 0 min 0 min 0 W/m 8,4 km/h (2 Bft) 95,74 %
06.09.2015 20:48 13,5 C 12,8 C 11,7 C 81 % 0 lf 1025,1 hPa 0,0 l/m 0 min 0 min 0 W/m 6,3 km/h (2 Bft) 95,74 %
06.09.2015 20:50 13,4 C 12,8 C 11,7 C 81 % 0 lf 1025,1 hPa 0,0 l/m 0 min 0 min 0 W/m 10,5 km/h (2 Bft) 100,00 %
06.09.2015 20:52 13,4 C 12,8 C 11,7 C 81 % 0 lf 1025,1 hPa 0,0 l/m 0 min 0 min 0 W/m 8,4 km/h (2 Bft) 95,65 %
06.09.2015 20:54 13,4 C 12,8 C 11,7 C 81 % 0 lf 1025,1 hPa 0,0 l/m 0 min 0 min 0 W/m 6,3 km/h (2 Bft) 95,74 %
06.09.2015 20:56 13,4 C 12,8 C 11,7 C 81 % 0 lf 1025,1 hPa 0,0 l/m 0 min 0 min 0 W/m 8,4 km/h (2 Bft) 97,87 %
06.09.2015 20:58 13,3 C 12,8 C 11,7 C 82 % 0 lf 1025,1 hPa 0,0 l/m 0 min 0 min 0 W/m 10,5 km/h (2 Bft) 93,62 %
06.09.2015 21:00 13,3 C 12,8 C 11,7 C 81 % 0 lf 1025,1 hPa 0,0 l/m 0 min 0 min 0 W/m 12,6 km/h (3 Bft) 93,62 %
06.09.2015 21:02 13,3 C 12,8 C 11,7 C 82 % 0 lf 1025,2 hPa 0,0 l/m 0 min 0 min 0 W/m 10,5 km/h (2 Bft) 95,74 %
06.09.2015 21:04 13,3 C 12,8 C 11,7 C 82 % 0 lf 1025,2 hPa 0,0 l/m 0 min 0 min 0 W/m 4,2 km/h (1 Bft) 93,48 %
06.09.2015 21:06 13,3 C 12,8 C 11,7 C 82 % 0 lf 1025,1 hPa 0,0 l/m 0 min 0 min 0 W/m 10,5 km/h (2 Bft) 95,74 %
06.09.2015 21:08 13,3 C 12,8 C 11,7 C 82 % 0 lf 1025,1 hPa 0,0 l/m 0 min 0 min 0 W/m 10,5 km/h (2 Bft) 95,74 %
06.09.2015 21:10 13,2 C 12,8 C 11,7 C 82 % 0 lf 1025,2 hPa 0,0 l/m 0 min 0 min 0 W/m 10,5 km/h (2 Bft) 87,23 %
06.09.2015 21:12 13,2 C 12,8 C 11,7 C 82 % 0 lf 1025,1 hPa 0,0 l/m 0 min 0 min 0 W/m 10,5 km/h (2 Bft) 95,74 %
06.09.2015 21:14 13,2 C 12,8 C 11,7 C 83 % 0 lf 1025,1 hPa 0,0 l/m 0 min 0 min 0 W/m 10,5 km/h (2 Bft) 93,48 %
06.09.2015 21:16 13,2 C 12,8 C 11,7 C 83 % 0 lf 1025,1 hPa 0,0 l/m 0 min 0 min 0 W/m 8,4 km/h (2 Bft) 93,62 %
06.09.2015 21:18 13,2 C 12,8 C 11,7 C 83 % 0 lf 1025,1 hPa 0,0 l/m 0 min 0 min 0 W/m 8,4 km/h (2 Bft) 93,62 %
06.09.2015 21:20 13,2 C 12,8 C 11,7 C 83 % 0 lf 1025,2 hPa 0,0 l/m 0 min 0 min 0 W/m 10,5 km/h (2 Bft) 95,74 %
06.09.2015 21:22 13,1 C 12,8 C 11,7 C 83 % 0 lf 1025,2 hPa 0,0 l/m 0 min 0 min 0 W/m 8,4 km/h (2 Bft) 91,49 %
06.09.2015 21:24 13,1 C 12,8 C 11,7 C 83 % 0 lf 1025,2 hPa 0,0 l/m 0 min 0 min 0 W/m 8,4 km/h (2 Bft) 89,36 %
06.09.2015 21:26 13,1 C 12,8 C 11,7 C 83 % 0 lf 1025,2 hPa 0,0 l/m 0 min 0 min 0 W/m 10,5 km/h (2 Bft) 93,62 %
06.09.2015 21:28 13,1 C 12,8 C 11,7 C 83 % 0 lf 1025,2 hPa 0,0 l/m 0 min 0 min 0 W/m 12,6 km/h (3 Bft) 86,96 %
06.09.2015 21:30 13,1 C 12,8 C 11,7 C 83 % 0 lf 1025,2 hPa 0,0 l/m 0 min 0 min 0 W/m 6,3 km/h (2 Bft) 93,62 %
06.09.2015 21:32 13,1 C 12,8 C 11,7 C 83 % 0 lf 1025,2 hPa 0,0 l/m 0 min 0 min 0 W/m 6,3 km/h (2 Bft) 91,49 %
06.09.2015 21:34 13,1 C 12,8 C 11,7 C 84 % 0 lf 1025,2 hPa 0,0 l/m 0 min 0 min 0 W/m 6,3 km/h (2 Bft) 91,49 %
06.09.2015 21:36 13,1 C 12,8 C 11,7 C 84 % 0 lf 1025,2 hPa 0,0 l/m 0 min 0 min 0 W/m 10,5 km/h (2 Bft) 93,62 %
06.09.2015 21:38 13,1 C 12,8 C 11,7 C 84 % 0 lf 1025,2 hPa 0,0 l/m 0 min 0 min 0 W/m 4,2 km/h (1 Bft) 93,48 %
06.09.2015 21:40 13,0 C 12,8 C 11,7 C 84 % 0 lf 1025,2 hPa 0,0 l/m 0 min 0 min 0 W/m 10,5 km/h (2 Bft) 93,62 %
06.09.2015 21:42 13,0 C 12,8 C 11,7 C 84 % 0 lf 1025,2 hPa 0,0 l/m 0 min 0 min 0 W/m 8,4 km/h (2 Bft) 95,74 %
06.09.2015 21:44 13,0 C 12,8 C 11,7 C 84 % 0 lf 1025,2 hPa 0,0 l/m 0 min 0 min 0 W/m 10,5 km/h (2 Bft) 93,62 %
06.09.2015 21:46 13,0 C 12,8 C 11,7 C 84 % 0 lf 1025,3 hPa 0,0 l/m 0 min 0 min 0 W/m 18,8 km/h (3 Bft) 91,49 %
06.09.2015 21:48 13,0 C 12,8 C 11,7 C 84 % 0 lf 1025,2 hPa 0,0 l/m 0 min 0 min 0 W/m 8,4 km/h (2 Bft) 91,49 %
06.09.2015 21:50 12,9 C 12,8 C 11,7 C 84 % 0 lf 1025,2 hPa 0,0 l/m 0 min 0 min 0 W/m 8,4 km/h (2 Bft) 91,30 %
06.09.2015 21:52 12,9 C 12,8 C 11,7 C 84 % 0 lf 1025,3 hPa 0,0 l/m 0 min 0 min 0 W/m 10,5 km/h (2 Bft) 93,62 %
06.09.2015 21:54 12,9 C 12,8 C 11,7 C 84 % 0 lf 1025,2 hPa 0,0 l/m 0 min 0 min 0 W/m 8,4 km/h (2 Bft) 93,62 %
06.09.2015 21:56 12,9 C 12,8 C 11,7 C 84 % 0 lf 1025,3 hPa 0,0 l/m 0 min 0 min 0 W/m 6,3 km/h (2 Bft) 91,49 %
06.09.2015 21:58 12,9 C 12,8 C 11,7 C 85 % 0 lf 1025,3 hPa 0,0 l/m 0 min 0 min 0 W/m 8,4 km/h (2 Bft) 93,62 %
06.09.2015 22:00 12,9 C 12,8 C 11,7 C 84 % 0 lf 1025,3 hPa 0,0 l/m 0 min 0 min 0 W/m 6,3 km/h (2 Bft) 93,62 %
06.09.2015 22:02 12,9 C 12,8 C 11,7 C 84 % 0 lf 1025,3 hPa 0,0 l/m 0 min 0 min 0 W/m 6,3 km/h (2 Bft) 95,65 %
06.09.2015 22:04 12,9 C 12,8 C 11,7 C 85 % 0 lf 1025,3 hPa 0,0 l/m 0 min 0 min 0 W/m 8,4 km/h (2 Bft) 93,62 %
06.09.2015 22:06 12,9 C 12,8 C 11,7 C 85 % 0 lf 1025,3 hPa 0,0 l/m 0 min 0 min 0 W/m 10,5 km/h (2 Bft) 95,74 %
06.09.2015 22:08 12,9 C 12,8 C 11,7 C 85 % 0 lf 1025,3 hPa 0,0 l/m 0 min 0 min 0 W/m 8,4 km/h (2 Bft) 95,74 %
06.09.2015 22:10 12,9 C 12,8 C 11,7 C 85 % 0 lf 1025,2 hPa 0,0 l/m 0 min 0 min 0 W/m 8,4 km/h (2 Bft) 97,87 %
06.09.2015 22:12 12,9 C 12,8 C 11,7 C 85 % 0 lf 1025,2 hPa 0,0 l/m 0 min 0 min 0 W/m 10,5 km/h (2 Bft) 95,74 %
06.09.2015 22:14 12,9 C 12,8 C 11,7 C 85 % 0 lf 1025,2 hPa 0,0 l/m 0 min 0 min 0 W/m 8,4 km/h (2 Bft) 97,83 %
06.09.2015 22:16 12,9 C 12,8 C 11,7 C 85 % 0 lf 1025,2 hPa 0,0 l/m 0 min 0 min 0 W/m 8,4 km/h (2 Bft) 97,87 %
06.09.2015 22:18 12,9 C 12,8 C 11,7 C 85 % 0 lf 1025,2 hPa 0,0 l/m 0 min 0 min 0 W/m 8,4 km/h (2 Bft) 95,74 %
06.09.2015 22:20 12,9 C 12,8 C 11,7 C 85 % 0 lf 1025,2 hPa 0,0 l/m 0 min 0 min 0 W/m 8,4 km/h (2 Bft) 97,87 %
06.09.2015 22:22 12,9 C 12,8 C 11,7 C 85 % 0 lf 1025,2 hPa 0,0 l/m 0 min 0 min 0 W/m 14,6 km/h (3 Bft) 97,87 %
06.09.2015 22:24 12,9 C 12,8 C 11,7 C 85 % 0 lf 1025,2 hPa 0,0 l/m 0 min 0 min 0 W/m 6,3 km/h (2 Bft) 97,87 %
06.09.2015 22:26 12,8 C 12,8 C 11,7 C 85 % 0 lf 1025,2 hPa 0,0 l/m 0 min 0 min 0 W/m 8,4 km/h (2 Bft) 100,00 %
06.09.2015 22:28 12,8 C 12,8 C 11,7 C 85 % 0 lf 1025,2 hPa 0,0 l/m 0 min 0 min 0 W/m 10,5 km/h (2 Bft) 100,00 %
06.09.2015 22:30 12,8 C 12,8 C 11,7 C 85 % 0 lf 1025,2 hPa 0,0 l/m 0 min 0 min 0 W/m 12,6 km/h (3 Bft) 100,00 %
06.09.2015 22:32 12,8 C 12,8 C 11,7 C 85 % 0 lf 1025,2 hPa 0,0 l/m 0 min 0 min 0 W/m 14,6 km/h (3 Bft) 100,00 %
06.09.2015 22:34 12,8 C 12,8 C 11,7 C 85 % 0 lf 1025,2 hPa 0,0 l/m 0 min 0 min 0 W/m 10,5 km/h (2 Bft) 95,74 %
06.09.2015 22:36 12,8 C 12,8 C 11,7 C 85 % 0 lf 1025,2 hPa 0,0 l/m 0 min 0 min 0 W/m 10,5 km/h (2 Bft) 97,83 %
06.09.2015 22:38 12,8 C 12,8 C 11,7 C 85 % 0 lf 1025,2 hPa 0,0 l/m 0 min 0 min 0 W/m 18,8 km/h (3 Bft) 100,00 %
06.09.2015 22:40 12,8 C 12,8 C 11,7 C 85 % 0 lf 1025,2 hPa 0,0 l/m 0 min 0 min 0 W/m 14,6 km/h (3 Bft) 100,00 %
06.09.2015 22:42 12,8 C 12,8 C 11,7 C 85 % 0 lf 1025,2 hPa 0,0 l/m 0 min 0 min 0 W/m 10,5 km/h (2 Bft) 100,00 %
06.09.2015 22:44 12,8 C 12,8 C 11,7 C 85 % 0 lf 1025,2 hPa 0,0 l/m 0 min 0 min 0 W/m 14,6 km/h (3 Bft) 100,00 %
06.09.2015 22:46 12,8 C 12,8 C 11,7 C 85 % 0 lf 1025,2 hPa 0,0 l/m 0 min 0 min 0 W/m 10,5 km/h (2 Bft) 97,87 %
06.09.2015 22:48 12,8 C 12,8 C 11,7 C 85 % 0 lf 1025,2 hPa 0,0 l/m 0 min 0 min 0 W/m 12,6 km/h (3 Bft) 100,00 %
06.09.2015 22:50 12,8 C 12,8 C 11,7 C 85 % 0 lf 1025,2 hPa 0,0 l/m 0 min 0 min 0 W/m 14,6 km/h (3 Bft) 95,74 %
06.09.2015 22:52 12,8 C 12,8 C 11,7 C 85 % 0 lf 1025,2 hPa 0,0 l/m 0 min 0 min 0 W/m 10,5 km/h (2 Bft) 100,00 %
06.09.2015 22:54 12,8 C 12,8 C 11,7 C 85 % 0 lf 1025,2 hPa 0,0 l/m 0 min 0 min 0 W/m 12,6 km/h (3 Bft) 97,87 %
06.09.2015 22:56 12,8 C 12,8 C 11,7 C 85 % 0 lf 1025,2 hPa 0,0 l/m 0 min 0 min 0 W/m 12,6 km/h (3 Bft) 100,00 %
06.09.2015 22:58 12,8 C 12,8 C 11,7 C 85 % 0 lf 1025,2 hPa 0,0 l/m 0 min 0 min 0 W/m 12,6 km/h (3 Bft) 100,00 %
06.09.2015 23:00 12,8 C 12,8 C 11,7 C 85 % 0 lf 1025,2 hPa 0,0 l/m 0 min 0 min 0 W/m 16,7 km/h (3 Bft) 95,65 %
06.09.2015 23:02 12,8 C 12,8 C 11,7 C 85 % 0 lf 1025,3 hPa 0,0 l/m 0 min 0 min 0 W/m 16,7 km/h (3 Bft) 100,00 %
06.09.2015 23:04 12,8 C 12,8 C 11,7 C 85 % 0 lf 1025,3 hPa 0,0 l/m 0 min 0 min 0 W/m 16,7 km/h (3 Bft) 100,00 %
06.09.2015 23:06 12,8 C 12,8 C 11,7 C 86 % 0 lf 1025,2 hPa 0,0 l/m 0 min 0 min 0 W/m 31,4 km/h (5 Bft) 100,00 %
06.09.2015 23:08 12,8 C 12,8 C 11,7 C 86 % 0 lf 1025,2 hPa 0,0 l/m 0 min 0 min 0 W/m 12,6 km/h (3 Bft) 100,00 %
06.09.2015 23:10 12,8 C 12,8 C 11,7 C 86 % 0 lf 1025,3 hPa 0,0 l/m 0 min 0 min 0 W/m 16,7 km/h (3 Bft) 95,74 %
06.09.2015 23:12 12,8 C 12,8 C 11,7 C 86 % 0 lf 1025,2 hPa 0,0 l/m 0 min 0 min 0 W/m 16,7 km/h (3 Bft) 100,00 %
06.09.2015 23:14 12,8 C 12,8 C 11,7 C 86 % 0 lf 1025,2 hPa 0,0 l/m 0 min 0 min 0 W/m 12,6 km/h (3 Bft) 100,00 %
06.09.2015 23:16 12,8 C 12,8 C 11,7 C 86 % 0 lf 1025,2 hPa 0,0 l/m 0 min 0 min 0 W/m 14,6 km/h (3 Bft) 100,00 %
06.09.2015 23:18 12,8 C 12,8 C 11,7 C 86 % 0 lf 1025,2 hPa 0,0 l/m 0 min 0 min 0 W/m 12,6 km/h (3 Bft) 100,00 %
06.09.2015 23:20 12,8 C 12,8 C 11,7 C 86 % 0 lf 1025,2 hPa 0,0 l/m 0 min 0 min 0 W/m 10,5 km/h (2 Bft) 100,00 %
06.09.2015 23:22 12,8 C 12,8 C 11,7 C 86 % 0 lf 1025,2 hPa 0,0 l/m 0 min 0 min 0 W/m 12,6 km/h (3 Bft) 97,87 %
06.09.2015 23:24 12,8 C 12,8 C 11,7 C 86 % 0 lf 1025,2 hPa 0,0 l/m 0 min 0 min 0 W/m 8,4 km/h (2 Bft) 97,83 %
06.09.2015 23:26 12,8 C 12,8 C 11,7 C 86 % 0 lf 1025,3 hPa 0,0 l/m 0 min 0 min 0 W/m 10,5 km/h (2 Bft) 100,00 %
06.09.2015 23:28 12,8 C 12,8 C 11,7 C 87 % 0 lf 1025,3 hPa 0,0 l/m 0 min 0 min 0 W/m 14,6 km/h (3 Bft) 100,00 %
06.09.2015 23:30 12,8 C 12,8 C 11,7 C 87 % 0 lf 1025,3 hPa 0,0 l/m 0 min 0 min 0 W/m 18,8 km/h (3 Bft) 100,00 %
06.09.2015 23:32 12,8 C 12,8 C 11,7 C 87 % 0 lf 1025,3 hPa 0,0 l/m 0 min 0 min 0 W/m 16,7 km/h (3 Bft) 100,00 %
06.09.2015 23:34 12,8 C 12,8 C 11,7 C 87 % 0 lf 1025,3 hPa 0,0 l/m 0 min 0 min 0 W/m 14,6 km/h (3 Bft) 97,87 %
06.09.2015 23:36 12,8 C 12,8 C 11,7 C 87 % 0 lf 1025,3 hPa 0,0 l/m 0 min 0 min 0 W/m 6,3 km/h (2 Bft) 97,83 %
06.09.2015 23:38 12,8 C 12,8 C 11,7 C 87 % 0 lf 1025,2 hPa 0,0 l/m 0 min 0 min 0 W/m 8,4 km/h (2 Bft) 100,00 %
06.09.2015 23:40 12,8 C 12,2 C 11,7 C 87 % 0 lf 1025,2 hPa 0,0 l/m 0 min 0 min 0 W/m 10,5 km/h (2 Bft) 93,62 %
06.09.2015 23:42 12,8 C 12,2 C 11,7 C 88 % 0 lf 1025,2 hPa 0,0 l/m 0 min 0 min 0 W/m 6,3 km/h (2 Bft) 95,74 %
06.09.2015 23:44 12,8 C 12,2 C 11,7 C 88 % 0 lf 1025,3 hPa 0,0 l/m 0 min 0 min 0 W/m 10,5 km/h (2 Bft) 93,62 %
06.09.2015 23:46 12,7 C 12,2 C 11,7 C 88 % 0 lf 1025,3 hPa 0,0 l/m 0 min 0 min 0 W/m 14,6 km/h (3 Bft) 93,48 %
06.09.2015 23:48 12,7 C 12,2 C 11,7 C 88 % 0 lf 1025,2 hPa 0,0 l/m 0 min 0 min 0 W/m 16,7 km/h (3 Bft) 93,62 %
06.09.2015 23:50 12,7 C 12,2 C 11,7 C 88 % 0 lf 1025,2 hPa 0,0 l/m 0 min 0 min 0 W/m 14,6 km/h (3 Bft) 95,74 %
06.09.2015 23:52 12,7 C 12,2 C 11,7 C 88 % 0 lf 1025,2 hPa 0,0 l/m 0 min 0 min 0 W/m 14,6 km/h (3 Bft) 95,74 %
06.09.2015 23:54 12,7 C 12,2 C 11,1 C 88 % 0 lf 1025,2 hPa 0,0 l/m 0 min 0 min 0 W/m 10,5 km/h (2 Bft) 95,74 %
06.09.2015 23:56 12,7 C 12,2 C 11,1 C 89 % 0 lf 1025,2 hPa 0,0 l/m 0 min 0 min 0 W/m 14,6 km/h (3 Bft) 93,62 %
06.09.2015 23:58 12,6 C 12,2 C 11,1 C 89 % 0 lf 1025,2 hPa 0,0 l/m 0 min 0 min 0 W/m 16,7 km/h (3 Bft) 93,48 %
_ Min-Zeit 07:14 06:14 06:00 16:50 01:08 00:00 - - - - 06:20 14:06
Minimum _ 8,6 C 7,8 C 7,2 C 65 % 0 lf 1018,9 hPa - - - - 4,2 km/h (1 Bft) 86,96 %
_ Max-Zeit 14:44 13:14 14:20 07:32 01:42 21:46 00:00 07:14 01:24 13:10 15:04 00:00
Maximum _ 16,9 C 22,8 C 17,8 C 94 % 15 lf 1025,3 hPa 0,0 l/m 2 min 2 min 584 W/m 35,6 km/h
N-NW (5 Bft)
100,00 %
Durchschnitt _ 12,8 C 14,0 C 11,9 C 83 % 1 lf 1022,4 hPa #0,0 l/m #7:17 h #34 min. 234 W/m 16,2 km/h (3 Bft) 96,46 %
© 2015 W. Hausmann